KC5DAQ-28 Weather Reports


Display with metric or nautical units.
time (UTC)temp
F
wind
direction
speed
MPH
gust
MPH
rain 1hr
in
rain 24hr
in
rain mn
in
humidity
%
barometer
mb
20260831021404 87 131 5.0 10.0 0.00 0.00 0.00 69 1008.0
20260831021303 87 124 4.0 10.0 0.00 0.00 0.00 69 1008.0
20260831021203 87 179 3.0 9.0 0.00 0.00 0.00 69 1008.1
20260831021104 87 125 3.0 9.0 0.00 0.00 0.00 69 1008.0
20260831021004 87 173 3.0 9.0 0.00 0.00 0.00 69 1008.0
20260831020902 87 134 4.0 9.0 0.00 0.00 0.00 69 1007.9
20260831020803 87 142 5.0 9.0 0.00 0.00 0.00 69 1007.9
20260831020702 87 162 4.0 9.0 0.00 0.00 0.00 69 1008.0
20260831020602 87 152 4.0 6.0 0.00 0.00 0.00 69 1007.9
20260831020503 87 148 4.0 7.0 0.00 0.00 0.00 69 1008.0
20260831020403 88 144 3.0 7.0 0.00 0.00 0.00 69 1007.9
20260831020303 88 140 3.0 7.0 0.00 0.00 0.00 69 1007.9
20260831020203 88 147 4.0 7.0 0.00 0.00 0.00 69 1008.0
20260831020104 88 128 3.0 7.0 0.00 0.00 0.00 69 1007.9
20260831020004 88 137 3.0 7.0 0.00 0.00 0.00 69 1007.9
20260831015902 88 134 4.0 7.0 0.00 0.00 0.00 68 1007.9
20260831015803 88 117 4.0 7.0 0.00 0.00 0.00 68 1007.8
20260831015703 88 134 5.0 7.0 0.00 0.00 0.00 68 1007.9
20260831015604 88 166 5.0 7.0 0.00 0.00 0.00 68 1007.8
20260831015505 88 127 4.0 7.0 0.00 0.00 0.00 68 1007.8
20260831015403 88 158 3.0 7.0 0.00 0.00 0.00 68 1007.9
20260831015305 88 124 4.0 7.0 0.00 0.00 0.00 68 1007.8
20260831015203 88 149 4.0 7.0 0.00 0.00 0.00 68 1007.8
20260831015103 88 137 5.0 7.0 0.00 0.00 0.00 68 1007.8
20260831015002 88 145 4.0 7.0 0.00 0.00 0.00 67 1007.9
20260831014904 88 125 4.0 7.0 0.00 0.00 0.00 67 1007.8
20260831014802 88 131 5.0 7.0 0.00 0.00 0.00 67 1007.7
20260831014702 88 179 4.0 7.0 0.00 0.00 0.00 67 1007.8
20260831014602 88 118 3.0 7.0 0.00 0.00 0.00 67 1007.8
20260831014503 88 151 3.0 7.0 0.00 0.00 0.00 67 1007.8
20260831014404 88 148 3.0 7.0 0.00 0.00 0.00 67 1007.8
20260831014303 88 135 4.0 7.0 0.00 0.00 0.00 67 1007.7
20260831014203 89 161 4.0 9.0 0.00 0.00 0.00 67 1007.8
20260831014102 89 171 5.0 9.0 0.00 0.00 0.00 67 1007.7
20260831014004 89 138 5.0 9.0 0.00 0.00 0.00 66 1007.7
20260831013902 89 123 4.0 9.0 0.00 0.00 0.00 66 1007.9
20260831013802 89 113 4.0 9.0 0.00 0.00 0.00 66 1007.8
20260831013703 89 116 5.0 9.0 0.00 0.00 0.00 66 1007.8
20260831013604 89 134 4.0 9.0 0.00 0.00 0.00 66 1007.8
20260831013504 89 124 4.0 9.0 0.00 0.00 0.00 66 1007.8
20260831013404 89 148 5.0 13.0 0.00 0.00 0.00 66 1007.8
20260831013301 89 128 4.0 13.0 0.00 0.00 0.00 65 1007.8
20260831013202 89 141 3.0 13.0 0.00 0.00 0.00 65 1007.8
20260831013104 89 140 3.0 13.0 0.00 0.00 0.00 65 1007.8
20260831013003 89 109 4.0 13.0 0.00 0.00 0.00 65 1007.8
20260831012902 89 148 4.0 13.0 0.00 0.00 0.00 65 1007.8
20260831012803 89 121 4.0 13.0 0.00 0.00 0.00 65 1007.8
20260831012703 89 157 4.0 13.0 0.00 0.00 0.00 65 1007.8
20260831012602 89 179 5.0 13.0 0.00 0.00 0.00 64 1007.7
20260831012503 89 172 6.0 13.0 0.00 0.00 0.00 64 1007.7
20260831012403 89 100 5.0 12.0 0.00 0.00 0.00 64 1007.7
20260831012306 89 103 4.0 12.0 0.00 0.00 0.00 64 1007.7
20260831012202 89 125 4.0 12.0 0.00 0.00 0.00 64 1007.7
20260831012102 89 128 4.0 12.0 0.00 0.00 0.00 64 1007.7
20260831012003 89 135 5.0 12.0 0.00 0.00 0.00 64 1007.7
20260831011902 89 123 7.0 12.0 0.00 0.00 0.00 64 1007.7
20260831011804 89 109 6.0 9.0 0.00 0.00 0.00 64 1007.7
20260831011703 90 142 4.0 9.0 0.00 0.00 0.00 64 1007.7
20260831011603 90 141 3.0 9.0 0.00 0.00 0.00 64 1007.7
20260831011505 90 138 3.0 9.0 0.00 0.00 0.00 64 1007.6
20260831011403 90 121 4.0 9.0 0.00 0.00 0.00 64 1007.7
20260831011303 90 148 4.0 11.0 0.00 0.00 0.00 63 1007.7
20260831011202 90 120 5.0 11.0 0.00 0.00 0.00 63 1007.6
20260831011104 90 155 6.0 11.0 0.00 0.00 0.00 63 1007.7
20260831011004 90 172 5.0 11.0 0.00 0.00 0.00 63 1007.5
20260831010904 90 121 6.0 11.0 0.00 0.00 0.00 63 1007.5
20260831010802 90 131 6.0 11.0 0.00 0.00 0.00 63 1007.6
20260831010702 90 117 5.0 11.0 0.00 0.00 0.00 63 1007.5
20260831010603 90 124 5.0 11.0 0.00 0.00 0.00 63 1007.5
20260831010504 90 140 6.0 11.0 0.00 0.00 0.00 63 1007.5
20260831010404 90 144 5.0 11.0 0.00 0.00 0.00 63 1007.5
20260831010304 90 140 4.0 10.0 0.00 0.00 0.00 63 1007.5
20260831010203 90 120 4.0 10.0 0.00 0.00 0.00 63 1007.5
20260831010105 90 135 4.0 10.0 0.00 0.00 0.00 63 1007.6
20260831010004 90 131 5.0 10.0 0.00 0.00 0.00 62 1007.6
20260831005902 90 145 5.0 10.0 0.00 0.00 0.00 62 1007.6
20260831005803 91 196 5.0 10.0 0.00 0.00 0.00 62 1007.5
20260831005703 91 141 6.0 10.0 0.00 0.00 0.00 62 1007.5
20260831005602 90 107 5.0 12.0 0.00 0.00 0.00 62 1007.5
20260831005504 91 149 4.0 13.0 0.00 0.00 0.00 62 1007.5
20260831005404 91 140 5.0 13.0 0.00 0.00 0.00 62 1007.5
20260831005306 91 152 4.0 13.0 0.00 0.00 0.00 62 1007.5
20260831005204 91 179 3.0 13.0 0.00 0.00 0.00 62 1007.6
20260831005103 91 159 4.0 13.0 0.00 0.00 0.00 61 1007.5
20260831005002 91 121 4.0 13.0 0.00 0.00 0.00 61 1007.5
20260831004904 91 155 4.0 13.0 0.00 0.00 0.00 61 1007.6
20260831004802 91 142 6.0 13.0 0.00 0.00 0.00 61 1007.6
20260831004704 91 103 7.0 13.0 0.00 0.00 0.00 61 1007.5
20260831004602 91 123 5.0 13.0 0.00 0.00 0.00 61 1007.5
20260831004506 91 140 4.0 10.0 0.00 0.00 0.00 61 1007.5
20260831004404 91 106 4.0 11.0 0.00 0.00 0.00 61 1007.5
20260831004302 91 161 4.0 12.0 0.00 0.00 0.00 61 1007.5
20260831004203 91 100 4.0 12.0 0.00 0.00 0.00 61 1007.5
20260831004103 91 125 4.0 12.0 0.00 0.00 0.00 60 1007.6
20260831004004 92 100 4.0 12.0 0.00 0.00 0.00 60 1007.4
20260831003904 92 135 4.0 12.0 0.00 0.00 0.00 60 1007.5
20260831003802 92 171 4.0 12.0 0.00 0.00 0.00 60 1007.5
20260831003702 92 149 5.0 12.0 0.00 0.00 0.00 60 1007.5
20260831003602 92 152 6.0 12.0 0.00 0.00 0.00 59 1007.4
20260831003505 92 109 6.0 12.0 0.00 0.00 0.00 59 1007.5
20260831003404 92 107 4.0 9.0 0.00 0.00 0.00 59 1007.4
20260831003303 92 151 3.0 9.0 0.00 0.00 0.00 59 1007.4
20260831003203 92 186 3.0 7.0 0.00 0.00 0.00 59 1007.5
20260831003104 92 162 3.0 7.0 0.00 0.00 0.00 59 1007.4
20260831003002 92 172 3.0 7.0 0.00 0.00 0.00 59 1007.4
20260831002903 92 151 4.0 10.0 0.00 0.00 0.00 59 1007.5
20260831002802 92 131 4.0 10.0 0.00 0.00 0.00 58 1007.5
20260831002703 92 147 4.0 10.0 0.00 0.00 0.00 58 1007.4
20260831002602 92 124 3.0 10.0 0.00 0.00 0.00 58 1007.4
20260831002505 92 106 3.0 10.0 0.00 0.00 0.00 58 1007.4
20260831002402 92 151 4.0 10.0 0.00 0.00 0.00 58 1007.4
20260831002306 92 144 3.0 10.0 0.00 0.00 0.00 58 1007.4
20260831002202 92 133 4.0 10.0 0.00 0.00 0.00 58 1007.3
20260831002102 93 149 4.0 10.0 0.00 0.00 0.00 58 1007.3
20260831002003 93 133 3.0 10.0 0.00 0.00 0.00 58 1007.2
20260831001904 93 123 3.0 9.0 0.00 0.00 0.00 57 1007.2
20260831001803 93 140 4.0 9.0 0.00 0.00 0.00 57 1007.3
20260831001702 93 120 5.0 9.0 0.00 0.00 0.00 57 1007.2
20260831001603 93 155 4.0 9.0 0.00 0.00 0.00 57 1007.2
20260831001503 93 113 4.0 10.0 0.00 0.00 0.00 57 1007.2
20260831001402 93 144 4.0 11.0 0.00 0.00 0.00 57 1007.2
20260831001303 93 162 5.0 11.0 0.00 0.00 0.00 56 1007.2
20260831001203 93 140 5.0 11.0 0.00 0.00 0.00 56 1007.2
20260831001101 93 144 5.0 11.0 0.00 0.00 0.00 56 1007.2
20260831001002 93 169 5.0 11.0 0.00 0.00 0.00 56 1007.2
20260831000902 93 172 5.0 11.0 0.00 0.00 0.00 56 1007.2
20260831000803 93 175 4.0 11.0 0.00 0.00 0.00 56 1007.2
20260831000703 94 152 6.0 11.0 0.00 0.00 0.00 56 1007.2
20260831000604 94 120 6.0 11.0 0.00 0.00 0.00 56 1007.1
20260831000503 94 138 6.0 11.0 0.00 0.00 0.00 56 1007.2
20260831000404 94 149 6.0 11.0 0.00 0.00 0.00 56 1007.2
20260831000304 94 147 4.0 7.0 0.00 0.00 0.00 56 1007.2
20260831000204 94 127 2.0 10.0 0.00 0.00 0.00 56 1007.1
20260831000103 94 152 2.0 10.0 0.00 0.00 0.00 56 1007.1
20260831000004 94 147 3.0 10.0 0.00 0.00 0.00 55 1007.1
20260830235902 94 127 3.0 10.0 0.00 0.00 0.00 55 1007.1
20260830235803 94 134 4.0 10.0 0.00 0.00 0.00 55 1007.2
20260830235705 94 151 4.0 10.0 0.00 0.00 0.00 55 1007.1
20260830235604 94 149 4.0 10.0 0.00 0.00 0.00 55 1007.1
20260830235503 94 124 5.0 10.0 0.00 0.00 0.00 55 1007.1
20260830235404 94 161 6.0 10.0 0.00 0.00 0.00 55 1007.1
20260830235305 94 147 7.0 10.0 0.00 0.00 0.00 55 1007.1
20260830235204 94 202 7.0 10.0 0.00 0.00 0.00 55 1007.2
20260830235104 94 123 6.0 9.0 0.00 0.00 0.00 55 1007.2
20260830235002 94 103 5.0 9.0 0.00 0.00 0.00 55 1007.1
20260830234903 94 114 4.0 9.0 0.00 0.00 0.00 55 1007.2
20260830234802 94 173 5.0 9.0 0.00 0.00 0.00 54 1007.3
20260830234704 94 159 5.0 9.0 0.00 0.00 0.00 54 1007.2
20260830234602 94 117 5.0 9.0 0.00 0.00 0.00 55 1007.2
20260830234501 94 176 5.0 9.0 0.00 0.00 0.00 55 1007.2
20260830234404 94 135 4.0 9.0 0.00 0.00 0.00 55 1007.2
20260830234303 94 125 2.0 6.0 0.00 0.00 0.00 54 1007.2
20260830234203 94 137 3.0 6.0 0.00 0.00 0.00 54 1007.2
20260830234104 94 138 3.0 6.0 0.00 0.00 0.00 54 1007.2
20260830234003 94 151 2.0 6.0 0.00 0.00 0.00 54 1007.2
20260830233902 94 162 2.0 7.0 0.00 0.00 0.00 54 1007.1
20260830233802 94 195 2.0 7.0 0.00 0.00 0.00 54 1007.2
20260830233704 94 161 2.0 7.0 0.00 0.00 0.00 54 1007.2
20260830233604 94 168 2.0 7.0 0.00 0.00 0.00 54 1007.1
20260830233503 94 180 2.0 7.0 0.00 0.00 0.00 53 1007.1
20260830233403 95 200 2.0 7.0 0.00 0.00 0.00 53 1007.1
20260830233303 95 189 4.0 7.0 0.00 0.00 0.00 53 1007.1
20260830233201 95 127 5.0 7.0 0.00 0.00 0.00 53 1007.1
20260830233103 95 130 5.0 7.0 0.00 0.00 0.00 53 1007.1
20260830233004 95 133 4.0 7.0 0.00 0.00 0.00 53 1007.1
20260830232904 95 148 3.0 6.0 0.00 0.00 0.00 53 1007.2
20260830232802 95 166 3.0 6.0 0.00 0.00 0.00 52 1007.2
20260830232704 95 147 3.0 6.0 0.00 0.00 0.00 52 1007.2
20260830232602 95 141 2.0 7.0 0.00 0.00 0.00 52 1007.3
20260830232503 95 161 2.0 7.0 0.00 0.00 0.00 52 1007.2
20260830232403 95 169 3.0 10.0 0.00 0.00 0.00 52 1007.2
20260830232305 95 176 3.0 10.0 0.00 0.00 0.00 52 1007.2
20260830232203 95 164 3.0 10.0 0.00 0.00 0.00 51 1007.2
20260830232103 96 169 3.0 10.0 0.00 0.00 0.00 51 1007.2
20260830232005 96 141 3.0 10.0 0.00 0.00 0.00 51 1007.2
20260830231903 96 128 4.0 10.0 0.00 0.00 0.00 50 1007.2
20260830231802 96 113 5.0 10.0 0.00 0.00 0.00 50 1007.1
20260830231704 96 111 4.0 10.0 0.00 0.00 0.00 51 1007.1
20260830231604 96 99 4.0 10.0 0.00 0.00 0.00 51 1007.1
20260830231502 96 116 4.0 10.0 0.00 0.00 0.00 51 1007.0
20260830231404 96 125 2.0 7.0 0.00 0.00 0.00 50 1007.0
20260830231303 96 157 3.0 7.0 0.00 0.00 0.00 50 1007.0
20260830231204 96 134 4.0 7.0 0.00 0.00 0.00 50 1007.1
20260830231102 96 117 4.0 7.0 0.00 0.00 0.00 50 1007.1
20260830231004 96 124 2.0 9.0 0.00 0.00 0.00 51 1007.1
20260830230902 96 106 2.0 10.0 0.00 0.00 0.00 50 1007.1
20260830230803 96 148 4.0 10.0 0.00 0.00 0.00 50 1007.1
20260830230703 96 151 4.0 10.0 0.00 0.00 0.00 50 1007.1
20260830230603 96 99 4.0 10.0 0.00 0.00 0.00 50 1007.1
20260830230505 96 130 4.0 10.0 0.00 0.00 0.00 50 1007.1
20260830230404 97 175 4.0 10.0 0.00 0.00 0.00 50 1007.1
20260830230304 97 128 4.0 10.0 0.00 0.00 0.00 49 1007.1
20260830230203 97 165 5.0 10.0 0.00 0.00 0.00 49 1007.1
20260830230053 97 147 5.0 10.0 0.00 0.00 0.00 49 1007.1
20260830225951 97 134 2.0 10.0 0.00 0.00 0.00 49 1007.0
20260830225849 97 189 3.0 10.0 0.00 0.00 0.00 49 1007.0
20260830225740 97 152 4.0 10.0 0.00 0.00 0.00 49 1007.0
20260830225639 97 104 5.0 10.0 0.00 0.00 0.00 49 1007.0
20260830225536 97 111 5.0 10.0 0.00 0.00 0.00 49 1007.0
20260830225434 97 110 4.0 10.0 0.00 0.00 0.00 49 1007.0
20260830225336 98 140 3.0 7.0 0.00 0.00 0.00 48 1007.1
20260830225232 98 144 5.0 7.0 0.00 0.00 0.00 47 1007.1
20260830225132 98 133 3.0 7.0 0.00 0.00 0.00 47 1007.0
20260830225032 98 133 3.0 7.0 0.00 0.00 0.00 47 1007.0
20260830224931 98 133 3.0 7.0 0.00 0.00 0.00 47 1007.1
20260830224830 98 155 2.0 11.0 0.00 0.00 0.00 46 1007.1
20260830224731 98 161 2.0 11.0 0.00 0.00 0.00 46 1007.1
20260830224632 98 169 3.0 11.0 0.00 0.00 0.00 46 1007.1
20260830224532 98 148 3.0 11.0 0.00 0.00 0.00 47 1007.2
20260830224433 98 164 2.0 11.0 0.00 0.00 0.00 47 1007.2
20260830224329 98 157 3.0 11.0 0.00 0.00 0.00 47 1007.2
20260830224228 98 158 5.0 11.0 0.00 0.00 0.00 47 1007.2
20260830224125 98 138 6.0 11.0 0.00 0.00 0.00 47 1007.2
20260830224022 98 128 6.0 11.0 0.00 0.00 0.00 47 1007.1
20260830223921 98 116 3.0 9.0 0.00 0.00 0.00 47 1007.2
20260830223818 98 103 3.0 9.0 0.00 0.00 0.00 46 1007.2
20260830223717 98 118 3.0 9.0 0.00 0.00 0.00 46 1007.1
20260830223616 98 155 1.0 5.0 0.00 0.00 0.00 46 1007.2
20260830223516 98 155 1.0 5.0 0.00 0.00 0.00 46 1007.2
20260830223404 98 158 0.0 5.0 0.00 0.00 0.00 46 1007.2
20260830223304 98 158 0.0 6.0 0.00 0.00 0.00 46 1007.2
20260830223203 98 158 1.0 6.0 0.00 0.00 0.00 46 1007.2
20260830223104 98 161 2.0 6.0 0.00 0.00 0.00 46 1007.2
20260830223002 98 175 3.0 6.0 0.00 0.00 0.00 47 1007.2
20260830222902 98 124 3.0 9.0 0.00 0.00 0.00 47 1007.2
20260830222804 98 124 3.0 9.0 0.00 0.00 0.00 47 1007.3
20260830222704 98 155 3.0 9.0 0.00 0.00 0.00 47 1007.2
20260830222604 98 172 4.0 9.0 0.00 0.00 0.00 46 1007.2
20260830222505 98 140 4.0 9.0 0.00 0.00 0.00 45 1007.2
20260830222403 98 120 3.0 9.0 0.00 0.00 0.00 45 1007.3
20260830222306 98 190 4.0 9.0 0.00 0.00 0.00 45 1007.3
20260830222204 98 151 4.0 9.0 0.00 0.00 0.00 45 1007.3
20260830222104 98 124 5.0 9.0 0.00 0.00 0.00 44 1007.3
20260830222002 98 125 5.0 9.0 0.00 0.00 0.00 44 1007.2
20260830221904 98 117 4.0 9.0 0.00 0.00 0.00 47 1007.2
20260830221802 98 131 4.0 14.0 0.00 0.00 0.00 47 1007.3
20260830221703 98 140 5.0 14.0 0.00 0.00 0.00 46 1007.2
20260830221602 98 106 3.0 14.0 0.00 0.00 0.00 46 1007.2
20260830221502 98 141 2.0 14.0 0.00 0.00 0.00 46 1007.2
20260830221405 98 148 2.0 14.0 0.00 0.00 0.00 47 1007.3
20260830221303 98 154 3.0 14.0 0.00 0.00 0.00 47 1007.3
20260830221203 98 144 3.0 14.0 0.00 0.00 0.00 47 1007.3
20260830221102 98 195 4.0 14.0 0.00 0.00 0.00 46 1007.2
20260830221004 98 154 8.0 14.0 0.00 0.00 0.00 47 1007.3
20260830220903 98 261 6.0 14.0 0.00 0.00 0.00 47 1007.2
20260830220803 98 114 5.0 14.0 0.00 0.00 0.00 47 1007.2
20260830220702 98 107 4.0 14.0 0.00 0.00 0.00 46 1007.2
20260830220603 98 100 3.0 14.0 0.00 0.00 0.00 46 1007.2
20260830220503 97 147 5.0 14.0 0.00 0.00 0.00 45 1007.3
20260830220402 98 149 5.0 14.0 0.00 0.00 0.00 45 1007.2
20260830220304 98 144 5.0 14.0 0.00 0.00 0.00 46 1007.3
20260830220203 98 107 6.0 14.0 0.00 0.00 0.00 46 1007.3
20260830220003 98 137 2.0 10.0 0.00 0.00 0.00 46 1007.3
20260830215902 98 123 3.0 10.0 0.00 0.00 0.00 45 1007.3
20260830215804 98 106 6.0 10.0 0.00 0.00 0.00 45 1007.2
20260830215703 98 118 6.0 10.0 0.00 0.00 0.00 45 1007.4
20260830215602 98 154 4.0 10.0 0.00 0.00 0.00 45 1007.3
20260830215503 98 151 2.0 9.0 0.00 0.00 0.00 46 1007.3
20260830215403 98 157 3.0 9.0 0.00 0.00 0.00 46 1007.3
20260830215305 98 159 2.0 9.0 0.00 0.00 0.00 46 1007.3
20260830215204 98 128 1.0 9.0 0.00 0.00 0.00 46 1007.3
20260830215103 98 127 2.0 9.0 0.00 0.00 0.00 46 1007.3
20260830215006 98 158 3.0 11.0 0.00 0.00 0.00 46 1007.3
20260830214903 98 183 5.0 11.0 0.00 0.00 0.00 46 1007.4
20260830214804 98 195 5.0 11.0 0.00 0.00 0.00 46 1007.3
20260830214703 98 185 3.0 11.0 0.00 0.00 0.00 46 1007.4
20260830214604 98 202 3.0 11.0 0.00 0.00 0.00 46 1007.4
20260830214503 98 155 2.0 11.0 0.00 0.00 0.00 46 1007.4
20260830214402 98 155 3.0 11.0 0.00 0.00 0.00 46 1007.3
20260830214303 98 158 4.0 11.0 0.00 0.00 0.00 46 1007.4
20260830214202 98 137 6.0 11.0 0.00 0.00 0.00 46 1007.4
20260830214103 98 131 6.0 11.0 0.00 0.00 0.00 46 1007.3
20260830214002 98 159 5.0 10.0 0.00 0.00 0.00 45 1007.4
20260830213904 98 155 4.0 10.0 0.00 0.00 0.00 45 1007.4
20260830213803 98 123 4.0 10.0 0.00 0.00 0.00 45 1007.4
20260830213703 98 145 4.0 11.0 0.00 0.00 0.00 46 1007.4
20260830213603 98 179 5.0 11.0 0.00 0.00 0.00 46 1007.4
20260830213504 98 195 4.0 11.0 0.00 0.00 0.00 47 1007.4
20260830213404 98 104 4.0 11.0 0.00 0.00 0.00 47 1007.4
20260830213302 98 118 5.0 11.0 0.00 0.00 0.00 46 1007.4
20260830213203 98 116 5.0 11.0 0.00 0.00 0.00 47 1007.5
20260830213103 98 130 4.0 11.0 0.00 0.00 0.00 47 1007.5
20260830213002 98 68 4.0 11.0 0.00 0.00 0.00 47 1007.6
20260830212904 98 107 6.0 11.0 0.00 0.00 0.00 47 1007.5
20260830212803 98 128 7.0 11.0 0.00 0.00 0.00 47 1007.5
20260830212701 98 90 4.0 11.0 0.00 0.00 0.00 47 1007.6
20260830212602 97 104 4.0 11.0 0.00 0.00 0.00 47 1007.6
20260830212504 97 103 4.0 12.0 0.00 0.00 0.00 47 1007.6
20260830212404 97 118 4.0 12.0 0.00 0.00 0.00 47 1007.6
20260830212306 97 134 3.0 12.0 0.00 0.00 0.00 46 1007.7
20260830212203 97 157 2.0 12.0 0.00 0.00 0.00 46 1007.7
20260830212104 97 138 4.0 12.0 0.00 0.00 0.00 46 1007.7
20260830212003 97 173 7.0 12.0 0.00 0.00 0.00 45 1007.8
20260830211903 97 106 8.0 12.0 0.00 0.00 0.00 45 1007.7
20260830211802 97 92 7.0 12.0 0.00 0.00 0.00 45 1007.7
20260830211703 97 107 7.0 12.0 0.00 0.00 0.00 46 1007.8
20260830211603 98 111 7.0 12.0 0.00 0.00 0.00 46 1007.7
20260830211505 98 113 4.0 11.0 0.00 0.00 0.00 46 1007.7
20260830211404 98 97 4.0 11.0 0.00 0.00 0.00 46 1007.8
20260830211303 98 55 4.0 11.0 0.00 0.00 0.00 47 1007.9
20260830211204 98 99 4.0 13.0 0.00 0.00 0.00 46 1007.8
20260830211102 98 100 5.0 13.0 0.00 0.00 0.00 46 1007.8
20260830211005 98 116 5.0 13.0 0.00 0.00 0.00 46 1007.9
20260830210902 98 124 5.0 13.0 0.00 0.00 0.00 46 1007.9
20260830210801 98 68 7.0 14.0 0.00 0.00 0.00 45 1007.9
20260830210702 98 118 8.0 14.0 0.00 0.00 0.00 46 1007.9
20260830210602 98 87 7.0 14.0 0.00 0.00 0.00 46 1007.9
20260830210504 98 79 7.0 14.0 0.00 0.00 0.00 46 1007.9
20260830210403 98 94 8.0 14.0 0.00 0.00 0.00 45 1007.9
20260830210304 98 93 9.0 14.0 0.00 0.00 0.00 45 1008.0
20260830210203 98 109 8.0 14.0 0.00 0.00 0.00 45 1007.9
20260830210104 98 92 8.0 14.0 0.00 0.00 0.00 45 1007.9
20260830210003 98 113 10.0 14.0 0.00 0.00 0.00 45 1007.9
20260830205902 97 94 11.0 14.0 0.00 0.00 0.00 46 1007.9
20260830205802 97 83 9.0 13.0 0.00 0.00 0.00 46 1007.9
20260830205704 97 113 6.0 11.0 0.00 0.00 0.00 46 1007.9
20260830205602 97 124 5.0 11.0 0.00 0.00 0.00 46 1008.0
20260830205504 98 65 7.0 11.0 0.00 0.00 0.00 46 1008.0
20260830205403 98 83 7.0 11.0 0.00 0.00 0.00 45 1008.0
20260830205305 98 94 7.0 11.0 0.00 0.00 0.00 45 1008.0
20260830205205 98 96 4.0 11.0 0.00 0.00 0.00 45 1008.0
20260830205103 98 72 4.0 10.0 0.00 0.00 0.00 45 1008.0
20260830205002 98 59 6.0 12.0 0.00 0.00 0.00 45 1008.0
20260830204902 98 89 7.0 12.0 0.00 0.00 0.00 45 1008.1
20260830204803 98 80 6.0 12.0 0.00 0.00 0.00 45 1008.0
20260830204702 98 78 4.0 12.0 0.00 0.00 0.00 44 1008.1
20260830204604 98 118 4.0 12.0 0.00 0.00 0.00 44 1008.1
20260830204502 98 106 5.0 12.0 0.00 0.00 0.00 44 1008.1
20260830204403 98 103 4.0 12.0 0.00 0.00 0.00 44 1008.2
20260830204304 98 86 4.0 12.0 0.00 0.00 0.00 44 1008.2
20260830204202 98 111 7.0 12.0 0.00 0.00 0.00 43 1008.2
20260830204104 99 107 8.0 12.0 0.00 0.00 0.00 44 1008.2
20260830204003 98 109 7.0 11.0 0.00 0.00 0.00 43 1008.1
20260830203904 98 107 6.0 11.0 0.00 0.00 0.00 43 1008.1
20260830203803 98 92 4.0 10.0 0.00 0.00 0.00 43 1008.1
20260830203703 98 124 4.0 10.0 0.00 0.00 0.00 44 1008.2
20260830203602 98 116 6.0 10.0 0.00 0.00 0.00 44 1008.2
20260830203502 98 92 4.0 10.0 0.00 0.00 0.00 44 1008.3
20260830203403 98 179 3.0 7.0 0.00 0.00 0.00 44 1008.2
20260830203302 98 182 3.0 7.0 0.00 0.00 0.00 44 1008.2
20260830203202 98 172 3.0 7.0 0.00 0.00 0.00 45 1008.2
20260830203103 98 180 2.0 6.0 0.00 0.00 0.00 45 1008.2
20260830203004 98 186 2.0 10.0 0.00 0.00 0.00 44 1008.3
20260830202904 98 209 2.0 10.0 0.00 0.00 0.00 44 1008.3
20260830202802 99 220 2.0 10.0 0.00 0.00 0.00 43 1008.3
20260830202701 99 193 2.0 10.0 0.00 0.00 0.00 43 1008.4
20260830202603 99 161 2.0 10.0 0.00 0.00 0.00 43 1008.3
20260830202502 99 145 2.0 10.0 0.00 0.00 0.00 44 1008.4
20260830202403 98 118 4.0 10.0 0.00 0.00 0.00 44 1008.4
20260830202306 98 121 4.0 10.0 0.00 0.00 0.00 45 1008.5
20260830202202 98 103 5.0 10.0 0.00 0.00 0.00 45 1008.4
20260830202103 98 138 6.0 10.0 0.00 0.00 0.00 45 1008.4
20260830202004 98 123 7.0 10.0 0.00 0.00 0.00 44 1008.4
20260830201904 98 106 8.0 10.0 0.00 0.00 0.00 43 1008.4
20260830201803 97 100 4.0 9.0 0.00 0.00 0.00 45 1008.5
20260830201702 97 102 3.0 11.0 0.00 0.00 0.00 45 1008.5
20260830201603 97 113 5.0 11.0 0.00 0.00 0.00 45 1008.6
20260830201503 97 82 5.0 11.0 0.00 0.00 0.00 44 1008.6
20260830201403 97 124 3.0 11.0 0.00 0.00 0.00 46 1008.7
20260830201302 97 125 1.0 11.0 0.00 0.00 0.00 45 1008.6
20260830201204 97 125 3.0 11.0 0.00 0.00 0.00 45 1008.7
20260830201104 98 125 5.0 11.0 0.00 0.00 0.00 45 1008.7
20260830201004 98 96 5.0 11.0 0.00 0.00 0.00 45 1008.7
20260830200903 98 113 7.0 11.0 0.00 0.00 0.00 45 1008.7
20260830200802 98 158 6.0 11.0 0.00 0.00 0.00 45 1008.7
20260830200702 98 111 4.0 10.0 0.00 0.00 0.00 45 1008.7
20260830200603 98 180 2.0 5.0 0.00 0.00 0.00 45 1008.7
20260830200505 97 180 4.0 5.0 0.00 0.00 0.00 46 1008.7
20260830200404 97 106 3.0 5.0 0.00 0.00 0.00 48 1008.7
20260830200304 97 144 1.0 5.0 0.00 0.00 0.00 48 1008.8
20260830200202 97 195 1.0 4.0 0.00 0.00 0.00 48 1008.8
20260830200004 97 185 2.0 7.0 0.00 0.00 0.00 48 1008.8
20260830195904 97 175 2.0 7.0 0.00 0.00 0.00 49 1008.8
20260830195802 97 140 3.0 7.0 0.00 0.00 0.00 49 1008.9
20260830195704 96 134 0.0 7.0 0.00 0.00 0.00 48 1008.9
20260830195603 96 76 0.0 7.0 0.00 0.00 0.00 48 1008.9
20260830195505 96 76 0.0 10.0 0.00 0.00 0.00 48 1008.9
20260830195403 96 76 1.0 10.0 0.00 0.00 0.00 48 1009.0
20260830195305 96 65 2.0 10.0 0.00 0.00 0.00 48 1009.0
20260830195204 97 66 4.0 12.0 0.00 0.00 0.00 48 1009.0
20260830195102 97 55 5.0 12.0 0.00 0.00 0.00 49 1009.0
20260830195004 97 97 3.0 12.0 0.00 0.00 0.00 50 1009.1
20260830194902 97 123 2.0 12.0 0.00 0.00 0.00 49 1009.0
20260830194802 97 104 4.0 12.0 0.00 0.00 0.00 49 1009.1
20260830194704 97 93 6.0 12.0 0.00 0.00 0.00 49 1009.2
20260830194604 97 100 5.0 12.0 0.00 0.00 0.00 50 1009.1
20260830194504 97 107 4.0 12.0 0.00 0.00 0.00 50 1009.2
20260830194402 97 121 6.0 12.0 0.00 0.00 0.00 50 1009.2
20260830194302 97 78 7.0 12.0 0.00 0.00 0.00 49 1009.2
20260830194203 97 90 6.0 10.0 0.00 0.00 0.00 50 1009.2
20260830194104 97 134 5.0 12.0 0.00 0.00 0.00 50 1009.2
20260830193956 97 140 5.0 12.0 0.00 0.00 0.00 50 1009.2
20260830193849 97 120 4.0 12.0 0.00 0.00 0.00 50 1009.3
20260830193742 97 158 3.0 12.0 0.00 0.00 0.00 49 1009.2
20260830193636 97 118 4.0 12.0 0.00 0.00 0.00 49 1009.3
20260830193532 97 85 6.0 12.0 0.00 0.00 0.00 51 1009.3
20260830193433 96 106 7.0 12.0 0.00 0.00 0.00 50 1009.3
20260830193331 96 107 7.0 12.0 0.00 0.00 0.00 49 1009.4
20260830193232 96 100 7.0 12.0 0.00 0.00 0.00 50 1009.4
20260830193132 96 93 6.0 12.0 0.00 0.00 0.00 49 1009.3
20260830193025 96 103 7.0 11.0 0.00 0.00 0.00 49 1009.4
20260830192927 96 104 6.0 11.0 0.00 0.00 0.00 50 1009.4
20260830192826 96 94 4.0 9.0 0.00 0.00 0.00 51 1009.4
20260830192726 96 149 3.0 10.0 0.00 0.00 0.00 51 1009.4
20260830192626 96 97 5.0 10.0 0.00 0.00 0.00 51 1009.5
20260830192526 96 106 6.0 10.0 0.00 0.00 0.00 51 1009.6
20260830192427 96 103 5.0 10.0 0.00 0.00 0.00 51 1009.5
20260830192328 96 96 5.0 10.0 0.00 0.00 0.00 50 1009.5
20260830192225 96 109 4.0 10.0 0.00 0.00 0.00 50 1009.5
20260830192125 96 121 4.0 10.0 0.00 0.00 0.00 50 1009.5
20260830192025 97 106 5.0 10.0 0.00 0.00 0.00 50 1009.5
20260830191924 97 103 5.0 10.0 0.00 0.00 0.00 51 1009.6
20260830191819 98 145 4.0 10.0 0.00 0.00 0.00 51 1009.7
20260830191717 97 123 3.0 7.0 0.00 0.00 0.00 52 1009.7
20260830191617 97 149 2.0 7.0 0.00 0.00 0.00 51 1009.7
20260830191514 97 154 3.0 7.0 0.00 0.00 0.00 51 1009.6
20260830191405 97 158 4.0 7.0 0.00 0.00 0.00 52 1009.6
20260830191304 96 142 4.0 7.0 0.00 0.00 0.00 53 1009.6
20260830191203 96 151 5.0 7.0 0.00 0.00 0.00 53 1009.6
20260830191103 96 186 2.0 6.0 0.00 0.00 0.00 53 1009.7
20260830191002 96 180 1.0 5.0 0.00 0.00 0.00 53 1009.7
20260830190902 96 175 3.0 5.0 0.00 0.00 0.00 53 1009.7
20260830190802 96 154 4.0 5.0 0.00 0.00 0.00 53 1009.6
20260830190703 96 140 1.0 5.0 0.00 0.00 0.00 53 1009.6
20260830190604 96 123 2.0 5.0 0.00 0.00 0.00 54 1009.7
20260830190502 96 123 2.0 7.0 0.00 0.00 0.00 54 1009.7
20260830190403 96 66 1.0 7.0 0.00 0.00 0.00 54 1009.6
20260830190303 95 71 1.0 7.0 0.00 0.00 0.00 55 1009.7
20260830190203 94 59 2.0 7.0 0.00 0.00 0.00 55 1009.7
20260830190103 94 65 2.0 7.0 0.00 0.00 0.00 55 1009.7
20260830190004 94 114 2.0 7.0 0.00 0.00 0.00 53 1009.8
20260830185904 95 114 3.0 7.0 0.00 0.00 0.00 53 1009.9
20260830185803 95 114 2.0 7.0 0.00 0.00 0.00 53 1009.8
20260830185704 95 171 4.0 7.0 0.00 0.00 0.00 53 1009.8
20260830185602 96 128 4.0 7.0 0.00 0.00 0.00 54 1009.8
20260830185507 95 135 1.0 7.0 0.00 0.00 0.00 54 1009.8
20260830185402 95 171 1.0 7.0 0.00 0.00 0.00 54 1009.8
20260830185306 95 171 1.0 7.0 0.00 0.00 0.00 53 1009.8
20260830185202 95 178 2.0 7.0 0.00 0.00 0.00 53 1009.8
20260830185102 96 172 1.0 7.0 0.00 0.00 0.00 53 1009.8
20260830185004 96 169 2.0 11.0 0.00 0.00 0.00 53 1009.8
20260830184903 96 169 3.0 11.0 0.00 0.00 0.00 53 1009.8
20260830184802 96 159 4.0 11.0 0.00 0.00 0.00 54 1009.8
20260830184702 96 125 4.0 11.0 0.00 0.00 0.00 53 1009.9
20260830184603 96 155 3.0 11.0 0.00 0.00 0.00 53 1009.8
20260830184504 96 140 4.0 11.0 0.00 0.00 0.00 53 1009.9
20260830184401 96 195 4.0 11.0 0.00 0.00 0.00 54 1009.9
20260830184304 96 116 4.0 11.0 0.00 0.00 0.00 54 1009.8
20260830184203 96 138 4.0 11.0 0.00 0.00 0.00 54 1009.8
20260830184103 96 176 4.0 11.0 0.00 0.00 0.00 54 1009.9
20260830184005 96 140 4.0 7.0 0.00 0.00 0.00 54 1009.9
20260830183902 96 151 3.0 7.0 0.00 0.00 0.00 55 1009.9
20260830183803 95 183 2.0 7.0 0.00 0.00 0.00 54 1009.9
20260830183704 95 312 3.0 7.0 0.00 0.00 0.00 53 1009.9
20260830183602 95 87 5.0 9.0 0.00 0.00 0.00 53 1010.0
20260830183505 96 102 5.0 11.0 0.00 0.00 0.00 53 1010.0
20260830183402 96 103 4.0 11.0 0.00 0.00 0.00 53 1010.0
20260830183304 96 85 4.0 11.0 0.00 0.00 0.00 54 1010.1
20260830183204 96 131 4.0 11.0 0.00 0.00 0.00 54 1010.1
20260830183103 96 140 3.0 11.0 0.00 0.00 0.00 54 1010.1
20260830183005 96 186 4.0 11.0 0.00 0.00 0.00 54 1010.1
20260830182903 96 162 5.0 11.0 0.00 0.00 0.00 55 1010.2
20260830182803 96 140 5.0 11.0 0.00 0.00 0.00 55 1010.2
20260830182701 95 141 6.0 11.0 0.00 0.00 0.00 54 1010.2
20260830182603 95 96 5.0 11.0 0.00 0.00 0.00 55 1010.0
20260830182505 95 327 3.0 6.0 0.00 0.00 0.00 55 1010.2
20260830182404 95 303 2.0 6.0 0.00 0.00 0.00 55 1010.2
20260830182306 95 165 1.0 5.0 0.00 0.00 0.00 55 1010.3
20260830182204 95 166 1.0 5.0 0.00 0.00 0.00 56 1010.4
20260830182103 95 164 0.0 5.0 0.00 0.00 0.00 56 1010.3
20260830182003 95 162 1.0 5.0 0.00 0.00 0.00 56 1010.4
20260830181902 94 162 2.0 5.0 0.00 0.00 0.00 56 1010.3
20260830181805 94 142 1.0 5.0 0.00 0.00 0.00 56 1010.4
20260830181702 94 183 1.0 5.0 0.00 0.00 0.00 56 1010.4
20260830181605 94 213 2.0 5.0 0.00 0.00 0.00 55 1010.4
20260830181504 94 220 3.0 6.0 0.00 0.00 0.00 56 1010.4
20260830181402 94 213 3.0 6.0 0.00 0.00 0.00 56 1010.4
20260830181303 94 265 2.0 6.0 0.00 0.00 0.00 56 1010.5
20260830181203 93 312 2.0 6.0 0.00 0.00 0.00 56 1010.5
20260830181104 93 338 2.0 6.0 0.00 0.00 0.00 56 1010.5
20260830181002 93 343 2.0 6.0 0.00 0.00 0.00 56 1010.5
20260830180902 93 350 2.0 6.0 0.00 0.00 0.00 56 1010.5
20260830180803 93 281 2.0 6.0 0.00 0.00 0.00 55 1010.5
20260830180703 93 265 3.0 6.0 0.00 0.00 0.00 55 1010.5
20260830180603 94 254 3.0 6.0 0.00 0.00 0.00 55 1010.5
20260830180502 94 203 3.0 6.0 0.00 0.00 0.00 54 1010.6
20260830180403 94 173 4.0 6.0 0.00 0.00 0.00 54 1010.6
20260830180303 94 172 4.0 6.0 0.00 0.00 0.00 53 1010.6
20260830180202 94 212 3.0 6.0 0.00 0.00 0.00 54 1010.7
20260830180103 94 234 2.0 6.0 0.00 0.00 0.00 54 1010.6
20260830180005 93 197 3.0 6.0 0.00 0.00 0.00 54 1010.7
20260830175903 93 93 4.0 6.0 0.00 0.00 0.00 54 1010.6
20260830175802 93 79 3.0 6.0 0.00 0.00 0.00 54 1010.7
20260830175703 93 138 2.0 4.0 0.00 0.00 0.00 58 1010.7
20260830175603 92 192 1.0 4.0 0.00 0.00 0.00 60 1010.8
20260830175503 92 213 0.0 4.0 0.00 0.00 0.00 60 1010.9
20260830175400 92 283 1.0 5.0 0.00 0.00 0.00 60 1010.8
20260830175257 92 283 2.0 5.0 0.00 0.00 0.00 61 1010.9
20260830175156 92 282 3.0 6.0 0.00 0.00 0.00 61 1010.9
20260830175038 91 289 2.0 6.0 0.00 0.00 0.00 61 1010.9
20260830174937 91 243 2.0 7.0 0.00 0.00 0.00 61 1010.9
20260830174835 92 237 2.0 7.0 0.00 0.00 0.00 61 1010.9
20260830174732 92 238 3.0 7.0 0.00 0.00 0.00 61 1011.0
20260830174632 92 282 4.0 7.0 0.00 0.00 0.00 61 1011.0
20260830174532 92 285 3.0 7.0 0.00 0.00 0.00 60 1011.0
20260830174431 92 266 3.0 7.0 0.00 0.00 0.00 62 1011.0
20260830174332 92 266 4.0 7.0 0.00 0.00 0.00 62 1011.0
20260830174232 92 257 5.0 7.0 0.00 0.00 0.00 62 1011.0
20260830174132 92 251 5.0 7.0 0.00 0.00 0.00 62 1011.0
20260830174033 92 255 4.0 7.0 0.00 0.00 0.00 62 1011.0
20260830173931 92 254 2.0 4.0 0.00 0.00 0.00 62 1011.0
20260830173831 92 257 1.0 5.0 0.00 0.00 0.00 62 1011.1
20260830173732 92 254 1.0 5.0 0.00 0.00 0.00 61 1011.0
20260830173633 91 109 0.0 5.0 0.00 0.00 0.00 62 1011.0
20260830173534 91 109 1.0 5.0 0.00 0.00 0.00 62 1011.1
20260830173432 91 109 2.0 5.0 0.00 0.00 0.00 62 1011.1
20260830173331 91 109 3.0 5.0 0.00 0.00 0.00 62 1011.1
20260830173232 91 130 2.0 5.0 0.00 0.00 0.00 62 1011.1
20260830173133 91 168 1.0 5.0 0.00 0.00 0.00 62 1011.1
20260830173032 91 180 2.0 5.0 0.00 0.00 0.00 63 1011.1
20260830172932 91 180 3.0 5.0 0.00 0.00 0.00 63 1011.1
20260830172833 91 183 2.0 5.0 0.00 0.00 0.00 63 1011.1
20260830172732 91 179 1.0 5.0 0.00 0.00 0.00 62 1011.2
20260830172632 91 175 2.0 5.0 0.00 0.00 0.00 62 1011.2
20260830172531 91 176 2.0 9.0 0.00 0.00 0.00 62 1011.1
20260830172433 91 183 2.0 9.0 0.00 0.00 0.00 62 1011.2
20260830172332 92 180 2.0 9.0 0.00 0.00 0.00 62 1011.2
20260830172232 92 214 2.0 9.0 0.00 0.00 0.00 62 1011.2
20260830172132 92 159 2.0 9.0 0.00 0.00 0.00 62 1011.2
20260830172027 92 154 3.0 9.0 0.00 0.00 0.00 62 1011.2
20260830171925 92 92 4.0 9.0 0.00 0.00 0.00 62 1011.2
20260830171824 91 120 4.0 9.0 0.00 0.00 0.00 63 1011.2
20260830171724 91 110 5.0 9.0 0.00 0.00 0.00 62 1011.2
20260830171622 91 125 3.0 9.0 0.00 0.00 0.00 65 1011.3
20260830171523 91 76 2.0 5.0 0.00 0.00 0.00 64 1011.2
20260830171422 90 65 3.0 5.0 0.00 0.00 0.00 64 1011.3
20260830171324 91 144 3.0 5.0 0.00 0.00 0.00 63 1011.3
20260830171222 91 286 3.0 5.0 0.00 0.00 0.00 63 1011.3
20260830171122 91 252 2.0 5.0 0.00 0.00 0.00 63 1011.3
20260830171022 91 250 2.0 7.0 0.00 0.00 0.00 63 1011.3
20260830170923 91 254 3.0 7.0 0.00 0.00 0.00 63 1011.2
20260830170824 91 223 3.0 7.0 0.00 0.00 0.00 64 1011.3
20260830170723 91 219 3.0 7.0 0.00 0.00 0.00 64 1011.3
20260830170623 91 221 3.0 7.0 0.00 0.00 0.00 66 1011.2
20260830170523 90 197 4.0 7.0 0.00 0.00 0.00 66 1011.3
20260830170423 90 251 4.0 7.0 0.00 0.00 0.00 65 1011.2
20260830170323 90 268 4.0 7.0 0.00 0.00 0.00 65 1011.3
20260830170222 90 264 6.0 7.0 0.00 0.00 0.00 64 1011.3
20260830170122 91 262 6.0 7.0 0.00 0.00 0.00 64 1011.2
20260830170022 91 252 4.0 7.0 0.00 0.00 0.00 64 1011.3
20260830165923 91 244 3.0 7.0 0.00 0.00 0.00 64 1011.3
20260830165823 91 257 2.0 7.0 0.00 0.00 0.00 65 1011.3
20260830165723 91 248 2.0 7.0 0.00 0.00 0.00 65 1011.3
20260830165622 91 261 4.0 7.0 0.00 0.00 0.00 64 1011.3
20260830165523 91 261 5.0 7.0 0.00 0.00 0.00 65 1011.4
20260830165423 91 245 5.0 7.0 0.00 0.00 0.00 65 1011.3
20260830165322 91 258 6.0 7.0 0.00 0.00 0.00 65 1011.4
20260830165223 91 266 4.0 7.0 0.00 0.00 0.00 66 1011.3
20260830165122 91 254 3.0 5.0 0.00 0.00 0.00 65 1011.4
20260830165024 91 200 3.0 5.0 0.00 0.00 0.00 67 1011.4
20260830164923 91 199 3.0 5.0 0.00 0.00 0.00 66 1011.3
20260830164822 91 254 2.0 5.0 0.00 0.00 0.00 66 1011.4
20260830164723 91 250 2.0 5.0 0.00 0.00 0.00 66 1011.4
20260830164622 90 255 2.0 5.0 0.00 0.00 0.00 67 1011.4
20260830164523 90 262 2.0 5.0 0.00 0.00 0.00 67 1011.4
20260830164423 90 195 2.0 3.0 0.00 0.00 0.00 67 1011.4
20260830164321 90 195 2.0 3.0 0.00 0.00 0.00 67 1011.4
20260830164221 90 213 1.0 3.0 0.00 0.00 0.00 67 1011.4
20260830164122 89 186 0.0 2.0 0.00 0.00 0.00 68 1011.4
20260830164022 89 186 1.0 3.0 0.00 0.00 0.00 68 1011.5
20260830163922 89 186 0.0 3.0 0.00 0.00 0.00 67 1011.5
20260830163823 89 188 0.0 3.0 0.00 0.00 0.00 67 1011.5
20260830163724 89 188 0.0 4.0 0.00 0.00 0.00 67 1011.5
20260830163624 89 188 0.0 4.0 0.00 0.00 0.00 68 1011.5
20260830163521 89 188 1.0 4.0 0.00 0.00 0.00 68 1011.5
20260830163421 89 188 1.0 4.0 0.00 0.00 0.00 68 1011.5
20260830163323 89 186 2.0 4.0 0.00 0.00 0.00 68 1011.6
20260830163221 89 188 2.0 4.0 0.00 0.00 0.00 68 1011.6
20260830163123 89 188 2.0 4.0 0.00 0.00 0.00 66 1011.6
20260830163022 89 224 2.0 4.0 0.00 0.00 0.00 66 1011.6
20260830162921 89 250 3.0 4.0 0.00 0.00 0.00 66 1011.6
20260830162821 89 258 2.0 4.0 0.00 0.00 0.00 68 1011.6
20260830162723 88 244 1.0 4.0 0.00 0.00 0.00 68 1011.6
20260830162623 88 248 1.0 4.0 0.00 0.00 0.00 69 1011.6
20260830162522 88 285 2.0 4.0 0.00 0.00 0.00 70 1011.6
20260830162422 88 285 3.0 4.0 0.00 0.00 0.00 69 1011.5
20260830162321 88 283 2.0 4.0 0.00 0.00 0.00 69 1011.6
20260830162221 88 212 2.0 4.0 0.00 0.00 0.00 69 1011.5
20260830162122 89 207 1.0 4.0 0.00 0.00 0.00 69 1011.6
20260830162021 89 199 1.0 4.0 0.00 0.00 0.00 69 1011.6
20260830161923 89 199 2.0 4.0 0.00 0.00 0.00 69 1011.5
20260830161824 89 204 2.0 5.0 0.00 0.00 0.00 69 1011.5
20260830161721 88 244 2.0 7.0 0.00 0.00 0.00 69 1011.6
20260830161621 88 244 2.0 7.0 0.00 0.00 0.00 69 1011.5
20260830161522 88 245 2.0 7.0 0.00 0.00 0.00 69 1011.5
20260830161423 88 243 2.0 7.0 0.00 0.00 0.00 69 1011.5
20260830161322 88 243 2.0 7.0 0.00 0.00 0.00 69 1011.7
20260830161224 88 243 2.0 7.0 0.00 0.00 0.00 69 1011.6
20260830161121 88 241 2.0 7.0 0.00 0.00 0.00 69 1011.6
20260830161021 88 243 2.0 7.0 0.00 0.00 0.00 69 1011.6
20260830160922 88 251 3.0 7.0 0.00 0.00 0.00 69 1011.7
20260830160821 88 240 4.0 7.0 0.00 0.00 0.00 69 1011.6
20260830160722 88 226 3.0 7.0 0.00 0.00 0.00 70 1011.7
20260830160621 88 243 3.0 7.0 0.00 0.00 0.00 70 1011.6
20260830160523 88 227 4.0 7.0 0.00 0.00 0.00 70 1011.7
20260830160421 88 220 5.0 7.0 0.00 0.00 0.00 71 1011.7
20260830160321 88 227 4.0 7.0 0.00 0.00 0.00 71 1011.6
20260830160221 88 257 4.0 7.0 0.00 0.00 0.00 70 1011.6
20260830160123 88 262 4.0 6.0 0.00 0.00 0.00 71 1011.6
20260830160021 89 252 4.0 6.0 0.00 0.00 0.00 71 1011.6
20260830155923 89 235 4.0 5.0 0.00 0.00 0.00 70 1011.5
20260830155823 89 250 4.0 5.0 0.00 0.00 0.00 71 1011.5
20260830155721 89 214 4.0 5.0 0.00 0.00 0.00 71 1011.6
20260830155621 89 255 3.0 5.0 0.00 0.00 0.00 71 1011.6
20260830155522 88 257 2.0 5.0 0.00 0.00 0.00 72 1011.6
20260830155421 88 251 3.0 5.0 0.00 0.00 0.00 72 1011.6
20260830155322 88 240 3.0 5.0 0.00 0.00 0.00 72 1011.6
20260830155222 88 245 3.0 5.0 0.00 0.00 0.00 72 1011.6
20260830155120 88 254 3.0 5.0 0.00 0.00 0.00 72 1011.6
20260830155020 88 257 2.0 5.0 0.00 0.00 0.00 72 1011.6
20260830154920 87 257 0.0 4.0 0.00 0.00 0.00 73 1011.6
20260830154822 87 261 0.0 4.0 0.00 0.00 0.00 73 1011.6
20260830154722 87 262 0.0 4.0 0.00 0.00 0.00 74 1011.6
20260830154623 87 255 0.0 4.0 0.00 0.00 0.00 74 1011.6
20260830154520 87 254 2.0 4.0 0.00 0.00 0.00 74 1011.6
20260830154421 87 264 3.0 4.0 0.00 0.00 0.00 74 1011.6
20260830154322 87 268 2.0 4.0 0.00 0.00 0.00 74 1011.6
20260830154222 87 206 3.0 4.0 0.00 0.00 0.00 74 1011.6
20260830154122 87 104 2.0 4.0 0.00 0.00 0.00 75 1011.5
20260830154020 87 213 1.0 4.0 0.00 0.00 0.00 75 1011.5
20260830153921 87 240 0.0 4.0 0.00 0.00 0.00 75 1011.6
20260830153820 87 240 1.0 4.0 0.00 0.00 0.00 75 1011.6
20260830153722 87 240 2.0 4.0 0.00 0.00 0.00 75 1011.6
20260830153621 87 240 2.0 4.0 0.00 0.00 0.00 74 1011.6
20260830153520 87 240 2.0 5.0 0.00 0.00 0.00 74 1011.6
20260830153421 87 243 3.0 5.0 0.00 0.00 0.00 74 1011.6
20260830153315 87 243 3.0 5.0 0.00 0.00 0.00 74 1011.6
20260830153213 87 241 2.0 5.0 0.00 0.00 0.00 74 1011.6
20260830153111 87 230 2.0 5.0 0.00 0.00 0.00 74 1011.5
20260830153011 87 223 1.0 5.0 0.00 0.00 0.00 74 1011.6
20260830152909 87 223 2.0 5.0 0.00 0.00 0.00 74 1011.5
20260830152807 87 235 3.0 5.0 0.00 0.00 0.00 74 1011.5
20260830152702 87 237 3.0 5.0 0.00 0.00 0.00 74 1011.5
20260830152604 87 219 1.0 5.0 0.00 0.00 0.00 74 1011.5
20260830152448 87 219 1.0 4.0 0.00 0.00 0.00 75 1011.5
20260830152345 86 219 2.0 4.0 0.00 0.00 0.00 75 1011.5
20260830152240 86 207 2.0 4.0 0.00 0.00 0.00 75 1011.5
20260830152141 86 217 2.0 4.0 0.00 0.00 0.00 75 1011.5
20260830152037 86 231 3.0 4.0 0.00 0.00 0.00 75 1011.4
20260830151935 86 237 2.0 4.0 0.00 0.00 0.00 76 1011.5
20260830151832 86 196 1.0 3.0 0.00 0.00 0.00 76 1011.4
20260830151732 86 188 1.0 3.0 0.00 0.00 0.00 76 1011.4
20260830151631 86 186 1.0 3.0 0.00 0.00 0.00 76 1011.4
20260830151532 86 186 0.0 3.0 0.00 0.00 0.00 76 1011.4
20260830151432 86 179 0.0 3.0 0.00 0.00 0.00 77 1011.4
20260830151330 86 179 0.0 3.0 0.00 0.00 0.00 77 1011.5
20260830151232 86 179 1.0 3.0 0.00 0.00 0.00 78 1011.4
20260830151132 86 190 1.0 3.0 0.00 0.00 0.00 78 1011.4
20260830151033 85 192 0.0 3.0 0.00 0.00 0.00 78 1011.4
20260830150931 85 192 1.0 3.0 0.00 0.00 0.00 78 1011.5
20260830150831 85 192 1.0 4.0 0.00 0.00 0.00 78 1011.4
20260830150732 85 186 1.0 4.0 0.00 0.00 0.00 78 1011.5
20260830150631 85 171 2.0 4.0 0.00 0.00 0.00 78 1011.5
20260830150532 85 192 1.0 4.0 0.00 0.00 0.00 78 1011.5
20260830150433 85 199 0.0 4.0 0.00 0.00 0.00 78 1011.5
20260830150331 85 197 1.0 4.0 0.00 0.00 0.00 78 1011.5
20260830150223 85 197 2.0 4.0 0.00 0.00 0.00 78 1011.5
20260830150124 85 203 2.0 4.0 0.00 0.00 0.00 78 1011.5
20260830150025 85 199 2.0 4.0 0.00 0.00 0.00 78 1011.5
20260830145921 85 202 2.0 4.0 0.00 0.00 0.00 78 1011.5
20260830145819 85 182 2.0 4.0 0.00 0.00 0.00 78 1011.5
20260830145721 85 175 2.0 4.0 0.00 0.00 0.00 78 1011.5
20260830145619 85 176 2.0 6.0 0.00 0.00 0.00 78 1011.6
20260830145519 85 175 0.0 6.0 0.00 0.00 0.00 78 1011.5
20260830145421 85 193 0.0 6.0 0.00 0.00 0.00 78 1011.5
20260830145320 85 193 2.0 6.0 0.00 0.00 0.00 78 1011.5
20260830145221 85 190 2.0 6.0 0.00 0.00 0.00 79 1011.5
20260830145121 85 188 2.0 6.0 0.00 0.00 0.00 79 1011.5
20260830145020 85 192 1.0 6.0 0.00 0.00 0.00 80 1011.4
20260830144920 85 231 2.0 6.0 0.00 0.00 0.00 80 1011.5
20260830144820 85 254 4.0 6.0 0.00 0.00 0.00 80 1011.5
20260830144720 85 254 4.0 6.0 0.00 0.00 0.00 80 1011.5
20260830144619 85 252 3.0 6.0 0.00 0.00 0.00 79 1011.4
20260830144521 85 217 2.0 4.0 0.00 0.00 0.00 79 1011.5
20260830144420 85 231 3.0 4.0 0.00 0.00 0.00 79 1011.5
20260830144319 85 245 3.0 4.0 0.00 0.00 0.00 79 1011.5
20260830144221 85 243 3.0 4.0 0.00 0.00 0.00 79 1011.5
20260830144120 85 250 2.0 4.0 0.00 0.00 0.00 79 1011.5
20260830144019 85 217 2.0 4.0 0.00 0.00 0.00 79 1011.5
20260830143921 85 216 2.0 4.0 0.00 0.00 0.00 79 1011.5
20260830143819 85 214 2.0 4.0 0.00 0.00 0.00 79 1011.5
20260830143720 85 192 2.0 4.0 0.00 0.00 0.00 80 1011.4
20260830143619 85 216 2.0 4.0 0.00 0.00 0.00 80 1011.4
20260830143519 85 173 1.0 4.0 0.00 0.00 0.00 81 1011.5
20260830143422 85 166 0.0 3.0 0.00 0.00 0.00 80 1011.6
20260830143321 85 169 0.0 3.0 0.00 0.00 0.00 80 1011.5
20260830143221 85 169 0.0 3.0 0.00 0.00 0.00 80 1011.5
20260830143121 85 168 0.0 3.0 0.00 0.00 0.00 81 1011.5
20260830143019 85 166 0.0 3.0 0.00 0.00 0.00 81 1011.5
20260830142919 85 165 1.0 3.0 0.00 0.00 0.00 81 1011.5
20260830142820 85 165 2.0 3.0 0.00 0.00 0.00 81 1011.5
20260830142720 85 162 2.0 3.0 0.00 0.00 0.00 81 1011.4
20260830142621 85 183 1.0 3.0 0.00 0.00 0.00 81 1011.5
20260830142520 85 178 0.0 3.0 0.00 0.00 0.00 81 1011.4
20260830142420 85 175 0.0 0.0 0.00 0.00 0.00 81 1011.4
20260830142320 85 178 0.0 0.0 0.00 0.00 0.00 80 1011.5
20260830142219 85 178 0.0 0.0 0.00 0.00 0.00 81 1011.5
20260830142119 85 178 0.0 0.0 0.00 0.00 0.00 81 1011.5
20260830142019 85 180 0.0 0.0 0.00 0.00 0.00 81 1011.4
20260830141919 85 131 0.0 0.0 0.00 0.00 0.00 81 1011.5
20260830141819 85 128 0.0 0.0 0.00 0.00 0.00 81 1011.5
20260830141719 85 121 0.0 0.0 0.00 0.00 0.00 82 1011.4
20260830141620 85 118 0.0 0.0 0.00 0.00 0.00 82 1011.4
20260830141520 85 123 0.0 0.0 0.00 0.00 0.00 82 1011.5
20260830141420 85 123 0.0 1.0 0.00 0.00 0.00 82 1011.5
20260830141318 85 123 0.0 1.0 0.00 0.00 0.00 82 1011.5
20260830141218 85 144 0.0 1.0 0.00 0.00 0.00 82 1011.5
20260830141119 84 144 0.0 1.0 0.00 0.00 0.00 82 1011.5
20260830141019 84 144 0.0 1.0 0.00 0.00 0.00 82 1011.5
20260830140919 84 144 0.0 1.0 0.00 0.00 0.00 82 1011.5
20260830140819 84 145 0.0 1.0 0.00 0.00 0.00 82 1011.5
20260830140719 84 152 0.0 1.0 0.00 0.00 0.00 83 1011.4
20260830140619 84 158 0.0 1.0 0.00 0.00 0.00 83 1011.6
20260830140519 84 164 0.0 1.0 0.00 0.00 0.00 83 1011.5
20260830140421 84 164 0.0 0.0 0.00 0.00 0.00 83 1011.5
20260830140318 84 165 0.0 0.0 0.00 0.00 0.00 83 1011.4
20260830140209 84 165 0.0 0.0 0.00 0.00 0.00 83 1011.5
20260830140108 84 165 0.0 0.0 0.00 0.00 0.00 83 1011.4
20260830140004 84 165 0.0 0.0 0.00 0.00 0.00 83 1011.5
20260830135903 84 165 0.0 0.0 0.00 0.00 0.00 83 1011.5
20260830135801 83 165 0.0 0.0 0.00 0.00 0.00 84 1011.4
20260830135702 83 165 0.0 0.0 0.00 0.00 0.00 84 1011.5
20260830135604 83 165 0.0 0.0 0.00 0.00 0.00 84 1011.5
20260830135505 83 166 0.0 0.0 0.00 0.00 0.00 84 1011.5
20260830135402 83 168 0.0 0.0 0.00 0.00 0.00 84 1011.5
20260830135306 83 169 0.0 0.0 0.00 0.00 0.00 84 1011.4
20260830135202 83 171 0.0 0.0 0.00 0.00 0.00 84 1011.4
20260830135102 83 172 0.0 0.0 0.00 0.00 0.00 85 1011.4
20260830135003 83 172 0.0 0.0 0.00 0.00 0.00 85 1011.3
20260830134904 82 172 0.0 0.0 0.00 0.00 0.00 85 1011.4
20260830134802 82 172 0.0 0.0 0.00 0.00 0.00 85 1011.4
20260830134702 82 172 0.0 0.0 0.00 0.00 0.00 85 1011.4
20260830134604 82 172 0.0 0.0 0.00 0.00 0.00 85 1011.4
20260830134502 82 172 0.0 0.0 0.00 0.00 0.00 86 1011.3
20260830134402 82 172 0.0 0.0 0.00 0.00 0.00 86 1011.3
20260830134303 82 172 0.0 0.0 0.00 0.00 0.00 86 1011.3
20260830134202 82 172 0.0 0.0 0.00 0.00 0.00 86 1011.4
20260830134103 82 172 0.0 0.0 0.00 0.00 0.00 86 1011.4
20260830134004 82 172 0.0 0.0 0.00 0.00 0.00 86 1011.3
20260830133903 82 172 0.0 0.0 0.00 0.00 0.00 87 1011.3
20260830133803 82 172 0.0 0.0 0.00 0.00 0.00 87 1011.4
20260830133704 81 173 0.0 0.0 0.00 0.00 0.00 87 1011.3
20260830133603 81 173 0.0 0.0 0.00 0.00 0.00 87 1011.3
20260830133502 81 173 0.0 0.0 0.00 0.00 0.00 88 1011.3
20260830133404 81 173 0.0 0.0 0.00 0.00 0.00 88 1011.3
20260830133304 81 173 0.0 0.0 0.00 0.00 0.00 88 1011.3
20260830133204 81 173 0.0 0.0 0.00 0.00 0.00 88 1011.3
20260830133103 81 173 0.0 0.0 0.00 0.00 0.00 88 1011.2
20260830133003 80 173 0.0 0.0 0.00 0.00 0.00 89 1011.2
20260830132904 80 173 0.0 0.0 0.00 0.00 0.00 89 1011.2
20260830132804 80 173 0.0 0.0 0.00 0.00 0.00 89 1011.2
20260830132703 80 173 0.0 0.0 0.00 0.00 0.00 89 1011.2
20260830132603 80 173 0.0 0.0 0.00 0.00 0.00 89 1011.2
20260830132504 80 173 0.0 0.0 0.00 0.00 0.00 90 1011.1
20260830132405 80 173 0.0 0.0 0.00 0.00 0.00 90 1011.1
20260830132305 80 173 0.0 0.0 0.00 0.00 0.00 90 1011.3
20260830132204 80 173 0.0 0.0 0.00 0.00 0.00 90 1011.2
20260830132104 80 173 0.0 0.0 0.00 0.00 0.00 90 1011.2
20260830132004 80 173 0.0 0.0 0.00 0.00 0.00 90 1011.2
20260830131904 80 173 0.0 0.0 0.00 0.00 0.00 90 1011.2
20260830131802 79 173 0.0 0.0 0.00 0.00 0.00 91 1011.2
20260830131704 79 173 0.0 0.0 0.00 0.00 0.00 91 1011.2
20260830131602 79 173 0.0 0.0 0.00 0.00 0.00 91 1011.2
20260830131502 79 173 0.0 0.0 0.00 0.00 0.00 91 1011.3
20260830131401 79 173 0.0 0.0 0.00 0.00 0.00 91 1011.2
20260830131303 79 173 0.0 0.0 0.00 0.00 0.00 91 1011.2
20260830131204 79 173 0.0 1.0 0.00 0.00 0.00 91 1011.2
20260830131103 79 173 0.0 1.0 0.00 0.00 0.00 91 1011.2
20260830131004 79 173 0.0 1.0 0.00 0.00 0.00 91 1011.2
20260830130904 79 173 0.0 1.0 0.00 0.00 0.00 91 1011.2
20260830130802 78 173 0.0 1.0 0.00 0.00 0.00 91 1011.2
20260830130703 78 173 0.0 1.0 0.00 0.00 0.00 92 1011.3
20260830130604 78 173 0.0 1.0 0.00 0.00 0.00 92 1011.2
20260830130503 78 173 0.0 1.0 0.00 0.00 0.00 92 1011.3
20260830130403 78 173 0.0 1.0 0.00 0.00 0.00 92 1011.2
20260830130304 78 173 0.0 1.0 0.00 0.00 0.00 92 1011.1
20260830130204 78 175 0.0 1.0 0.00 0.00 0.00 92 1011.1
20260830130003 78 175 0.0 1.0 0.00 0.00 0.00 92 1011.1
20260830125904 78 175 0.0 1.0 0.00 0.00 0.00 92 1011.1
20260830125802 78 175 0.0 1.0 0.00 0.00 0.00 92 1011.2
20260830125703 78 175 0.0 1.0 0.00 0.00 0.00 92 1011.1
20260830125603 78 175 0.0 1.0 0.00 0.00 0.00 92 1011.1
20260830125505 78 175 1.0 1.0 0.00 0.00 0.00 92 1011.1
20260830125404 78 175 0.0 1.0 0.00 0.00 0.00 92 1011.0
20260830125306 77 175 0.0 0.0 0.00 0.00 0.00 92 1010.9
20260830125203 77 175 0.0 0.0 0.00 0.00 0.00 92 1011.0
20260830125103 77 175 0.0 0.0 0.00 0.00 0.00 92 1011.0
20260830125004 77 175 0.0 0.0 0.00 0.00 0.00 92 1011.0
20260830124903 77 175 0.0 0.0 0.00 0.00 0.00 92 1011.0
20260830124803 77 175 0.0 0.0 0.00 0.00 0.00 92 1011.0
20260830124702 77 175 0.0 0.0 0.00 0.00 0.00 92 1011.0
20260830124603 77 175 0.0 0.0 0.00 0.00 0.00 92 1011.0
20260830124502 77 175 0.0 0.0 0.00 0.00 0.00 92 1010.9
20260830124402 77 175 0.0 0.0 0.00 0.00 0.00 92 1010.9
20260830124303 77 175 0.0 0.0 0.00 0.00 0.00 92 1010.9
20260830124202 77 175 0.0 0.0 0.00 0.00 0.00 92 1010.9
20260830124104 77 175 0.0 0.0 0.00 0.00 0.00 92 1011.0
20260830124005 77 175 0.0 0.0 0.00 0.00 0.00 92 1010.9
20260830123902 77 175 0.0 0.0 0.00 0.00 0.00 92 1011.0
20260830123803 77 175 0.0 0.0 0.00 0.00 0.00 92 1011.0
20260830123702 77 175 0.0 0.0 0.00 0.00 0.00 92 1010.9
20260830123604 76 175 0.0 0.0 0.00 0.00 0.00 92 1010.9
20260830123504 76 175 0.0 0.0 0.00 0.00 0.00 92 1011.0
20260830123403 76 175 0.0 0.0 0.00 0.00 0.00 92 1011.0
20260830123301 76 175 0.0 0.0 0.00 0.00 0.00 92 1010.9
20260830123202 76 175 0.0 0.0 0.00 0.00 0.00 92 1010.8
20260830123104 76 175 0.0 0.0 0.00 0.00 0.00 92 1010.9
20260830123002 76 175 0.0 0.0 0.00 0.00 0.00 92 1010.9
20260830122903 76 175 0.0 1.0 0.00 0.00 0.00 92 1010.9
20260830122803 76 175 0.0 2.0 0.00 0.00 0.00 92 1010.8
20260830122704 76 175 0.0 2.0 0.00 0.00 0.00 92 1010.8
20260830122604 76 175 0.0 2.0 0.00 0.00 0.00 92 1010.8
20260830122503 76 175 0.0 2.0 0.00 0.00 0.00 92 1010.8
20260830122402 76 175 0.0 2.0 0.00 0.00 0.00 92 1010.8
20260830122306 76 175 0.0 2.0 0.00 0.00 0.00 92 1010.8
20260830122203 76 175 0.0 2.0 0.00 0.00 0.00 92 1010.8
20260830122103 76 175 0.0 2.0 0.00 0.00 0.00 92 1010.9
20260830122004 77 175 1.0 2.0 0.00 0.00 0.00 92 1010.9
20260830121904 77 175 1.0 2.0 0.00 0.00 0.00 92 1010.8
20260830121803 77 175 0.0 1.0 0.00 0.00 0.00 92 1010.8
20260830121702 77 176 0.0 0.0 0.00 0.00 0.00 93 1010.8
20260830121603 77 176 0.0 0.0 0.00 0.00 0.00 93 1010.8
20260830121503 76 176 0.0 0.0 0.00 0.00 0.00 93 1010.8
20260830121404 77 176 0.0 0.0 0.00 0.00 0.00 93 1010.8
20260830121302 76 176 0.0 0.0 0.00 0.00 0.00 93 1010.7
20260830121204 76 176 0.0 0.0 0.00 0.00 0.00 93 1010.8
20260830121103 76 176 0.0 1.0 0.00 0.00 0.00 92 1010.8
20260830121004 76 176 0.0 1.0 0.00 0.00 0.00 92 1010.8
20260830120904 76 176 0.0 1.0 0.00 0.00 0.00 92 1010.8
20260830120802 76 176 0.0 1.0 0.00 0.00 0.00 92 1010.8
20260830120703 76 176 0.0 1.0 0.00 0.00 0.00 92 1010.8
20260830120602 76 176 0.0 1.0 0.00 0.00 0.00 92 1010.7
20260830120502 76 176 0.0 1.0 0.00 0.00 0.00 92 1010.7
20260830120402 76 176 0.0 1.0 0.00 0.00 0.00 92 1010.8
20260830120302 77 176 0.0 1.0 0.00 0.00 0.00 92 1010.8
20260830120202 76 176 0.0 1.0 0.00 0.00 0.00 92 1010.7
20260830120005 76 176 0.0 0.0 0.00 0.00 0.00 93 1010.6
20260830115903 76 176 0.0 0.0 0.00 0.00 0.00 93 1010.5
20260830115803 76 176 0.0 0.0 0.00 0.00 0.00 92 1010.6
20260830115704 76 176 0.0 0.0 0.00 0.00 0.00 92 1010.5
20260830115602 76 176 0.0 0.0 0.00 0.00 0.00 92 1010.5
20260830115503 76 176 0.0 0.0 0.00 0.00 0.00 92 1010.6
20260830115404 76 176 0.0 0.0 0.00 0.00 0.00 92 1010.6
20260830115306 76 176 0.0 0.0 0.00 0.00 0.00 92 1010.5
20260830115203 76 176 0.0 0.0 0.00 0.00 0.00 92 1010.6
20260830115101 76 176 0.0 0.0 0.00 0.00 0.00 92 1010.6
20260830115004 76 176 0.0 0.0 0.00 0.00 0.00 92 1010.5
20260830114902 76 176 0.0 0.0 0.00 0.00 0.00 92 1010.6
20260830114803 76 176 0.0 0.0 0.00 0.00 0.00 92 1010.5
20260830114702 76 176 0.0 0.0 0.00 0.00 0.00 92 1010.6
20260830114603 76 176 0.0 0.0 0.00 0.00 0.00 92 1010.5
20260830114504 76 176 0.0 0.0 0.00 0.00 0.00 92 1010.5
20260830114402 76 176 0.0 0.0 0.00 0.00 0.00 92 1010.5
20260830114302 76 176 0.0 0.0 0.00 0.00 0.00 92 1010.5
20260830114203 76 176 0.0 0.0 0.00 0.00 0.00 92 1010.5
20260830114105 76 176 0.0 0.0 0.00 0.00 0.00 92 1010.5
20260830114004 76 176 0.0 0.0 0.00 0.00 0.00 92 1010.5
20260830113904 76 176 0.0 0.0 0.00 0.00 0.00 92 1010.5
20260830113803 76 176 0.0 0.0 0.00 0.00 0.00 92 1010.5
20260830113702 76 176 0.0 0.0 0.00 0.00 0.00 92 1010.5
20260830113603 76 176 0.0 0.0 0.00 0.00 0.00 92 1010.4
20260830113504 76 176 0.0 0.0 0.00 0.00 0.00 92 1010.4
20260830113403 76 176 0.0 0.0 0.00 0.00 0.00 92 1010.4
20260830113304 76 176 0.0 0.0 0.00 0.00 0.00 92 1010.3
20260830113202 76 176 0.0 0.0 0.00 0.00 0.00 92 1010.3
20260830113102 76 176 0.0 0.0 0.00 0.00 0.00 92 1010.2
20260830113002 76 176 0.0 0.0 0.00 0.00 0.00 92 1010.3
20260830112904 76 176 0.0 0.0 0.00 0.00 0.00 92 1010.4
20260830112801 76 176 0.0 0.0 0.00 0.00 0.00 92 1010.4
20260830112703 76 176 0.0 0.0 0.00 0.00 0.00 92 1010.3
20260830112605 77 176 0.0 0.0 0.00 0.00 0.00 92 1010.3
20260830112505 77 176 0.0 0.0 0.00 0.00 0.00 92 1010.3
20260830112404 77 176 0.0 0.0 0.00 0.00 0.00 92 1010.3
20260830112306 77 176 0.0 0.0 0.00 0.00 0.00 92 1010.4
20260830112204 77 176 0.0 0.0 0.00 0.00 0.00 92 1010.4
20260830112104 77 176 0.0 0.0 0.00 0.00 0.00 92 1010.4
20260830112002 77 176 0.0 0.0 0.00 0.00 0.00 92 1010.3
20260830111903 77 176 0.0 0.0 0.00 0.00 0.00 92 1010.3
20260830111802 77 176 0.0 0.0 0.00 0.00 0.00 92 1010.4
20260830111703 77 176 0.0 0.0 0.00 0.00 0.00 92 1010.4
20260830111602 76 176 0.0 0.0 0.00 0.00 0.00 92 1010.4
20260830111502 76 176 0.0 0.0 0.00 0.00 0.00 91 1010.4
20260830111402 76 176 0.0 0.0 0.00 0.00 0.00 91 1010.4
20260830111303 76 176 0.0 0.0 0.00 0.00 0.00 92 1010.4
20260830111202 76 176 0.0 0.0 0.00 0.00 0.00 92 1010.3
20260830111103 76 176 0.0 0.0 0.00 0.00 0.00 91 1010.3
20260830111003 76 176 0.0 0.0 0.00 0.00 0.00 91 1010.4
20260830110902 76 176 0.0 0.0 0.00 0.00 0.00 91 1010.3
20260830110802 76 176 0.0 0.0 0.00 0.00 0.00 91 1010.3
20260830110703 76 176 0.0 0.0 0.00 0.00 0.00 91 1010.2
20260830110603 76 176 0.0 0.0 0.00 0.00 0.00 91 1010.2
20260830110503 76 176 0.0 0.0 0.00 0.00 0.00 91 1010.2
20260830110404 76 176 0.0 0.0 0.00 0.00 0.00 91 1010.2
20260830110302 76 176 0.0 0.0 0.00 0.00 0.00 91 1010.3
20260830110203 76 176 0.0 0.0 0.00 0.00 0.00 90 1010.3
20260830110005 76 176 0.0 0.0 0.00 0.00 0.00 91 1010.3
20260830105904 76 176 0.0 0.0 0.00 0.00 0.00 91 1010.3
20260830105803 77 176 0.0 0.0 0.00 0.00 0.00 91 1010.3
20260830105704 77 176 0.0 0.0 0.00 0.00 0.00 91 1010.3
20260830105602 77 176 0.0 0.0 0.00 0.00 0.00 91 1010.3
20260830105503 77 176 0.0 0.0 0.00 0.00 0.00 91 1010.3
20260830105404 77 176 0.0 0.0 0.00 0.00 0.00 91 1010.2
20260830105305 77 176 0.0 0.0 0.00 0.00 0.00 91 1010.2
20260830105204 76 176 0.0 0.0 0.00 0.00 0.00 91 1010.2
20260830105103 77 176 0.0 0.0 0.00 0.00 0.00 91 1010.2
20260830105003 76 176 0.0 0.0 0.00 0.00 0.00 91 1010.3
20260830104904 76 176 0.0 0.0 0.00 0.00 0.00 91 1010.2
20260830104802 76 176 0.0 0.0 0.00 0.00 0.00 91 1010.2
20260830104703 76 176 0.0 0.0 0.00 0.00 0.00 91 1010.3
20260830104602 76 176 0.0 0.0 0.00 0.00 0.00 91 1010.3
20260830104504 76 176 0.0 0.0 0.00 0.00 0.00 91 1010.3
20260830104403 76 176 0.0 0.0 0.00 0.00 0.00 91 1010.2
20260830104303 76 176 0.0 0.0 0.00 0.00 0.00 90 1010.2
20260830104204 76 176 0.0 0.0 0.00 0.00 0.00 90 1010.2
20260830104102 76 176 0.0 0.0 0.00 0.00 0.00 90 1010.1
20260830104004 76 176 0.0 0.0 0.00 0.00 0.00 90 1010.1
20260830103903 76 176 0.0 0.0 0.00 0.00 0.00 90 1010.1
20260830103804 76 176 0.0 0.0 0.00 0.00 0.00 90 1010.1
20260830103703 76 176 0.0 0.0 0.00 0.00 0.00 90 1010.1
20260830103603 76 176 0.0 0.0 0.00 0.00 0.00 90 1010.0
20260830103504 77 176 0.0 0.0 0.00 0.00 0.00 90 1010.1
20260830103402 77 176 0.0 0.0 0.00 0.00 0.00 90 1010.1
20260830103302 77 176 0.0 0.0 0.00 0.00 0.00 91 1010.1
20260830103202 77 176 0.0 0.0 0.00 0.00 0.00 91 1010.1
20260830103104 77 176 0.0 0.0 0.00 0.00 0.00 91 1010.1
20260830103003 77 176 0.0 0.0 0.00 0.00 0.00 91 1010.1
20260830102902 77 176 0.0 0.0 0.00 0.00 0.00 90 1010.1
20260830102802 77 176 0.0 0.0 0.00 0.00 0.00 90 1010.1
20260830102702 77 176 0.0 0.0 0.00 0.00 0.00 90 1010.1
20260830102602 77 176 0.0 0.0 0.00 0.00 0.00 90 1010.1
20260830102503 77 176 0.0 0.0 0.00 0.00 0.00 90 1010.1
20260830102403 77 176 0.0 0.0 0.00 0.00 0.00 90 1010.1
20260830102307 77 176 0.0 0.0 0.00 0.00 0.00 90 1010.0
20260830102202 77 176 0.0 0.0 0.00 0.00 0.00 90 1010.1
20260830102102 77 176 0.0 0.0 0.00 0.00 0.00 90 1010.0
20260830102004 77 176 0.0 0.0 0.00 0.00 0.00 90 1010.0
20260830101903 77 176 0.0 0.0 0.00 0.00 0.00 90 1010.1
20260830101804 77 176 0.0 0.0 0.00 0.00 0.00 90 1010.1
20260830101702 77 176 0.0 0.0 0.00 0.00 0.00 90 1010.0
20260830101603 77 176 0.0 0.0 0.00 0.00 0.00 90 1010.0
20260830101503 77 176 0.0 0.0 0.00 0.00 0.00 90 1010.0
20260830101403 77 176 0.0 0.0 0.00 0.00 0.00 90 1010.0
20260830101303 77 176 0.0 0.0 0.00 0.00 0.00 90 1009.9
20260830101203 77 176 0.0 0.0 0.00 0.00 0.00 90 1009.9
20260830101104 77 176 0.0 0.0 0.00 0.00 0.00 90 1009.9
20260830101002 77 176 0.0 0.0 0.00 0.00 0.00 90 1009.9
20260830100904 77 176 0.0 0.0 0.00 0.00 0.00 90 1009.9
20260830100801 77 176 0.0 0.0 0.00 0.00 0.00 90 1010.0
20260830100702 77 176 0.0 0.0 0.00 0.00 0.00 90 1010.0
20260830100604 77 176 0.0 0.0 0.00 0.00 0.00 90 1009.9
20260830100505 77 176 0.0 0.0 0.00 0.00 0.00 90 1010.0
20260830100403 77 176 0.0 0.0 0.00 0.00 0.00 90 1010.0
20260830100304 77 176 0.0 0.0 0.00 0.00 0.00 90 1009.9
20260830100202 77 176 0.0 0.0 0.00 0.00 0.00 89 1009.9
20260830100103 77 176 0.0 0.0 0.00 0.00 0.00 89 1009.9
20260830100003 77 176 0.0 0.0 0.00 0.00 0.00 89 1009.9
20260830095904 77 176 0.0 0.0 0.00 0.00 0.00 90 1009.9
20260830095802 77 176 0.0 0.0 0.00 0.00 0.00 89 1009.9
20260830095703 77 176 0.0 0.0 0.00 0.00 0.00 89 1009.8
20260830095603 77 176 0.0 0.0 0.00 0.00 0.00 90 1009.9
20260830095504 78 176 0.0 0.0 0.00 0.00 0.00 90 1009.8
20260830095405 78 176 0.0 0.0 0.00 0.00 0.00 90 1009.8
20260830095306 78 176 0.0 0.0 0.00 0.00 0.00 90 1009.8
20260830095204 78 176 0.0 0.0 0.00 0.00 0.00 89 1009.9
20260830095103 78 176 0.0 0.0 0.00 0.00 0.00 89 1009.9
20260830095002 78 176 0.0 0.0 0.00 0.00 0.00 89 1009.9
20260830094903 78 176 0.0 0.0 0.00 0.00 0.00 89 1009.8
20260830094802 78 176 0.0 0.0 0.00 0.00 0.00 89 1009.9
20260830094702 78 176 0.0 0.0 0.00 0.00 0.00 90 1009.9
20260830094602 78 176 0.0 0.0 0.00 0.00 0.00 90 1009.9
20260830094502 78 176 0.0 0.0 0.00 0.00 0.00 90 1009.8
20260830094403 78 176 0.0 0.0 0.00 0.00 0.00 90 1009.8
20260830094304 78 176 0.0 0.0 0.00 0.00 0.00 90 1009.7
20260830094204 78 176 0.0 0.0 0.00 0.00 0.00 90 1009.7
20260830094102 78 176 0.0 0.0 0.00 0.00 0.00 90 1009.7
20260830094004 78 176 0.0 0.0 0.00 0.00 0.00 90 1009.7
20260830093903 78 176 0.0 0.0 0.00 0.00 0.00 90 1009.7
20260830093803 78 176 0.0 0.0 0.00 0.00 0.00 89 1009.8
20260830093704 78 176 0.0 0.0 0.00 0.00 0.00 89 1009.8
20260830093604 78 176 0.0 1.0 0.00 0.00 0.00 89 1009.8
20260830093505 78 176 0.0 1.0 0.00 0.00 0.00 89 1009.8
20260830093403 78 176 0.0 1.0 0.00 0.00 0.00 89 1009.9
20260830093303 78 176 0.0 1.0 0.00 0.00 0.00 89 1009.8
20260830093204 78 176 0.0 1.0 0.00 0.00 0.00 89 1009.9
20260830093104 78 176 0.0 1.0 0.00 0.00 0.00 89 1009.9
20260830093005 78 176 0.0 1.0 0.00 0.00 0.00 89 1009.8
20260830092902 78 176 0.0 1.0 0.00 0.00 0.00 89 1009.9
20260830092803 78 176 0.0 1.0 0.00 0.00 0.00 89 1009.8
20260830092702 78 175 0.0 1.0 0.00 0.00 0.00 89 1009.8
20260830092602 78 175 0.0 0.0 0.00 0.00 0.00 89 1009.8
20260830092503 78 175 0.0 0.0 0.00 0.00 0.00 89 1009.8
20260830092404 78 175 0.0 0.0 0.00 0.00 0.00 89 1009.9
20260830092305 78 175 0.0 0.0 0.00 0.00 0.00 89 1009.8
20260830092203 78 175 0.0 0.0 0.00 0.00 0.00 89 1009.9
20260830092103 78 175 0.0 0.0 0.00 0.00 0.00 89 1009.9
20260830092005 78 175 0.0 0.0 0.00 0.00 0.00 89 1009.9
20260830091903 78 175 0.0 0.0 0.00 0.00 0.00 88 1009.9
20260830091804 78 175 0.0 0.0 0.00 0.00 0.00 88 1009.9
20260830091702 78 175 0.0 0.0 0.00 0.00 0.00 88 1010.0
20260830091603 78 175 0.0 0.0 0.00 0.00 0.00 88 1010.0
20260830091502 78 175 0.0 0.0 0.00 0.00 0.00 88 1010.0
20260830091402 78 175 0.0 0.0 0.00 0.00 0.00 88 1010.0
20260830091303 78 175 0.0 0.0 0.00 0.00 0.00 88 1010.0
20260830091203 78 175 0.0 0.0 0.00 0.00 0.00 88 1009.9
20260830091103 78 175 0.0 0.0 0.00 0.00 0.00 88 1009.8
20260830091004 78 175 0.0 0.0 0.00 0.00 0.00 88 1009.9
20260830090903 78 175 0.0 0.0 0.00 0.00 0.00 88 1009.9
20260830090804 79 175 0.0 0.0 0.00 0.00 0.00 88 1009.9
20260830090702 79 175 0.0 0.0 0.00 0.00 0.00 88 1009.9
20260830090603 79 175 0.0 1.0 0.00 0.00 0.00 88 1009.9
20260830090502 79 175 0.0 1.0 0.00 0.00 0.00 88 1009.9
20260830090402 79 175 0.0 1.0 0.00 0.00 0.00 88 1009.9
20260830090305 79 175 0.0 1.0 0.00 0.00 0.00 88 1010.0
20260830090205 79 175 0.0 1.0 0.00 0.00 0.00 88 1010.0
20260830090103 79 175 0.0 1.0 0.00 0.00 0.00 88 1010.0
20260830090004 79 175 0.0 1.0 0.00 0.00 0.00 88 1010.0
20260830085903 79 175 0.0 1.0 0.00 0.00 0.00 88 1010.0
20260830085804 79 175 0.0 1.0 0.00 0.00 0.00 88 1010.0
20260830085704 79 175 0.0 1.0 0.00 0.00 0.00 88 1010.0
20260830085603 79 175 0.0 1.0 0.00 0.00 0.00 88 1010.0
20260830085502 79 175 0.0 1.0 0.00 0.00 0.00 88 1010.1
20260830085402 79 175 0.0 1.0 0.00 0.00 0.00 88 1010.0
20260830085302 79 175 0.0 1.0 0.00 0.00 0.00 88 1010.0
20260830085203 79 176 0.0 0.0 0.00 0.00 0.00 88 1010.0
20260830085104 79 176 0.0 0.0 0.00 0.00 0.00 88 1010.0
20260830085002 79 176 0.0 0.0 0.00 0.00 0.00 88 1010.0
20260830084904 79 176 0.0 0.0 0.00 0.00 0.00 88 1009.9
20260830084803 79 176 0.0 0.0 0.00 0.00 0.00 88 1010.1
20260830084704 79 176 0.0 0.0 0.00 0.00 0.00 88 1010.0
20260830084603 79 176 0.0 0.0 0.00 0.00 0.00 88 1010.0
20260830084503 79 176 0.0 0.0 0.00 0.00 0.00 88 1010.0
20260830084404 79 176 0.0 0.0 0.00 0.00 0.00 88 1010.1
20260830084304 79 176 0.0 0.0 0.00 0.00 0.00 88 1010.1
20260830084203 79 176 0.0 0.0 0.00 0.00 0.00 88 1010.1
20260830084103 79 176 0.0 0.0 0.00 0.00 0.00 88 1010.0
20260830084003 79 176 0.0 0.0 0.00 0.00 0.00 88 1009.9
20260830083902 79 176 0.0 0.0 0.00 0.00 0.00 88 1009.9
20260830083802 79 176 0.0 0.0 0.00 0.00 0.00 88 1010.0
20260830083704 79 176 0.0 0.0 0.00 0.00 0.00 88 1009.9
20260830083603 79 176 0.0 0.0 0.00 0.00 0.00 88 1009.9
20260830083503 79 176 0.0 0.0 0.00 0.00 0.00 88 1009.9
20260830083402 79 176 0.0 0.0 0.00 0.00 0.00 88 1010.0
20260830083302 79 176 0.0 0.0 0.00 0.00 0.00 88 1010.1
20260830083202 79 176 0.0 0.0 0.00 0.00 0.00 88 1010.1
20260830083102 79 176 0.0 0.0 0.00 0.00 0.00 88 1010.1
20260830083003 79 176 0.0 0.0 0.00 0.00 0.00 88 1010.0
20260830082905 79 176 0.0 0.0 0.00 0.00 0.00 88 1010.0
20260830082804 79 176 0.0 0.0 0.00 0.00 0.00 88 1010.0
20260830082702 79 176 0.0 0.0 0.00 0.00 0.00 88 1010.1
20260830082604 79 176 0.0 0.0 0.00 0.00 0.00 88 1010.0
20260830082504 79 176 0.0 0.0 0.00 0.00 0.00 88 1010.0
20260830082402 79 176 0.0 0.0 0.00 0.00 0.00 88 1010.0
20260830082306 79 176 0.0 0.0 0.00 0.00 0.00 88 1010.0
20260830082201 79 176 0.0 0.0 0.00 0.00 0.00 88 1010.0
20260830082103 79 176 0.0 0.0 0.00 0.00 0.00 88 1010.0
20260830082005 79 176 0.0 0.0 0.00 0.00 0.00 88 1010.0
20260830081902 79 176 0.0 0.0 0.00 0.00 0.00 88 1010.0
20260830081804 79 176 0.0 0.0 0.00 0.00 0.00 88 1010.0
20260830081703 79 176 0.0 0.0 0.00 0.00 0.00 88 1010.0
20260830081602 79 176 0.0 0.0 0.00 0.00 0.00 88 1010.1
20260830081503 79 176 0.0 0.0 0.00 0.00 0.00 88 1010.1
20260830081403 79 176 0.0 0.0 0.00 0.00 0.00 87 1010.1
20260830081304 79 176 0.0 0.0 0.00 0.00 0.00 88 1010.1
20260830081203 79 176 0.0 0.0 0.00 0.00 0.00 88 1010.1
20260830081103 79 176 0.0 0.0 0.00 0.00 0.00 88 1010.1
20260830081003 79 176 0.0 0.0 0.00 0.00 0.00 87 1010.1
20260830080905 79 176 0.0 0.0 0.00 0.00 0.00 87 1010.1
20260830080804 79 176 0.0 0.0 0.00 0.00 0.00 87 1010.1
20260830080704 79 176 0.0 0.0 0.00 0.00 0.00 87 1010.2
20260830080603 79 176 0.0 0.0 0.00 0.00 0.00 87 1010.1
20260830080504 79 176 0.0 0.0 0.00 0.00 0.00 87 1010.1
20260830080403 79 176 0.0 0.0 0.00 0.00 0.00 87 1010.1
20260830080302 79 176 0.0 0.0 0.00 0.00 0.00 87 1010.0
20260830080202 79 176 0.0 0.0 0.00 0.00 0.00 87 1010.2
20260830080002 79 175 0.0 0.0 0.00 0.00 0.00 87 1010.0
20260830075904 79 175 0.0 0.0 0.00 0.00 0.00 87 1010.0
20260830075804 79 175 0.0 0.0 0.00 0.00 0.00 87 1010.1
20260830075703 79 175 0.0 0.0 0.00 0.00 0.00 87 1010.2
20260830075603 79 175 0.0 1.0 0.00 0.00 0.00 87 1010.2
20260830075502 79 175 0.0 1.0 0.00 0.00 0.00 87 1010.2
20260830075402 79 175 0.0 1.0 0.00 0.00 0.00 87 1010.1
20260830075306 79 175 0.0 1.0 0.00 0.00 0.00 87 1010.1
20260830075204 79 175 0.0 1.0 0.00 0.00 0.00 87 1010.1
20260830075104 79 175 0.0 1.0 0.00 0.00 0.00 87 1010.1
20260830075002 79 175 0.0 2.0 0.00 0.00 0.00 87 1010.2
20260830074904 79 175 0.0 2.0 0.00 0.00 0.00 87 1010.1
20260830074803 79 175 0.0 2.0 0.00 0.00 0.00 87 1010.1
20260830074702 79 175 0.0 2.0 0.00 0.00 0.00 87 1010.2
20260830074603 79 175 0.0 2.0 0.00 0.00 0.00 87 1010.1
20260830074505 79 175 0.0 2.0 0.00 0.00 0.00 87 1010.2
20260830074402 79 175 0.0 2.0 0.00 0.00 0.00 87 1010.1
20260830074304 79 175 0.0 2.0 0.00 0.00 0.00 87 1010.1
20260830074204 79 175 0.0 2.0 0.00 0.00 0.00 87 1010.2
20260830074103 79 175 0.0 2.0 0.00 0.00 0.00 86 1010.2
20260830074004 79 175 0.0 1.0 0.00 0.00 0.00 86 1010.1
20260830073902 79 175 0.0 1.0 0.00 0.00 0.00 86 1010.2
20260830073802 79 171 0.0 0.0 0.00 0.00 0.00 86 1010.1
20260830073703 80 171 0.0 0.0 0.00 0.00 0.00 86 1010.2
20260830073603 80 171 0.0 0.0 0.00 0.00 0.00 86 1010.2
20260830073503 80 171 0.0 0.0 0.00 0.00 0.00 86 1010.3
20260830073403 80 171 0.0 0.0 0.00 0.00 0.00 86 1010.3
20260830073302 80 171 0.0 0.0 0.00 0.00 0.00 86 1010.3
20260830073204 80 171 0.0 0.0 0.00 0.00 0.00 86 1010.3
20260830073104 80 171 0.0 0.0 0.00 0.00 0.00 86 1010.3
20260830073004 80 171 0.0 0.0 0.00 0.00 0.00 86 1010.3
20260830072904 80 171 0.0 1.0 0.00 0.00 0.00 86 1010.4
20260830072804 80 171 0.0 1.0 0.00 0.00 0.00 86 1010.4
20260830072704 80 171 0.0 1.0 0.00 0.00 0.00 86 1010.3
20260830072603 80 171 0.0 1.0 0.00 0.00 0.00 86 1010.3
20260830072505 80 171 0.0 1.0 0.00 0.00 0.00 86 1010.3
20260830072403 80 171 0.0 1.0 0.00 0.00 0.00 86 1010.2
20260830072306 80 171 0.0 1.0 0.00 0.00 0.00 86 1010.2
20260830072204 80 171 0.0 1.0 0.00 0.00 0.00 86 1010.2
20260830072101 80 171 0.0 1.0 0.00 0.00 0.00 86 1010.2
20260830072002 80 171 0.0 1.0 0.00 0.00 0.00 86 1010.2
20260830071904 80 171 0.0 1.0 0.00 0.00 0.00 86 1010.3
20260830071803 80 171 0.0 1.0 0.00 0.00 0.00 86 1010.3
20260830071704 80 171 0.0 1.0 0.00 0.00 0.00 86 1010.3
20260830071602 80 171 0.0 1.0 0.00 0.00 0.00 85 1010.3
20260830071503 80 169 0.0 1.0 0.00 0.00 0.00 85 1010.3
20260830071402 80 169 0.0 1.0 0.00 0.00 0.00 85 1010.3
20260830071304 80 169 0.0 1.0 0.00 0.00 0.00 85 1010.2
20260830071203 80 172 0.0 1.0 0.00 0.00 0.00 85 1010.3
20260830071103 80 171 0.0 1.0 0.00 0.00 0.00 85 1010.3
20260830071004 80 172 0.0 1.0 0.00 0.00 0.00 85 1010.3
20260830070904 80 172 0.0 0.0 0.00 0.00 0.00 85 1010.3
20260830070804 80 172 0.0 0.0 0.00 0.00 0.00 85 1010.3
20260830070703 80 171 0.0 0.0 0.00 0.00 0.00 85 1010.3
20260830070603 80 171 0.0 0.0 0.00 0.00 0.00 85 1010.3
20260830070503 80 172 0.0 1.0 0.00 0.00 0.00 85 1010.4
20260830070402 80 172 0.0 1.0 0.00 0.00 0.00 85 1010.4
20260830070303 80 172 0.0 1.0 0.00 0.00 0.00 85 1010.3
20260830070204 80 172 0.0 1.0 0.00 0.00 0.00 85 1010.3
20260830070104 80 172 0.0 1.0 0.00 0.00 0.00 85 1010.3
20260830070002 80 172 0.0 2.0 0.00 0.00 0.00 85 1010.3
20260830065903 80 172 0.0 2.0 0.00 0.00 0.00 85 1010.3
20260830065804 80 172 0.0 2.0 0.00 0.00 0.00 85 1010.4
20260830065702 80 171 0.0 2.0 0.00 0.00 0.00 85 1010.4
20260830065602 80 171 0.0 2.0 0.00 0.00 0.00 85 1010.3
20260830065503 80 171 0.0 3.0 0.00 0.00 0.00 85 1010.3
20260830065403 80 171 0.0 3.0 0.00 0.00 0.00 85 1010.3
20260830065306 80 171 0.0 3.0 0.00 0.00 0.00 85 1010.3
20260830065202 80 171 0.0 3.0 0.00 0.00 0.00 85 1010.3
20260830065104 80 171 1.0 3.0 0.00 0.00 0.00 85 1010.3
20260830065002 80 182 0.0 3.0 0.00 0.00 0.00 85 1010.2
20260830064903 80 183 0.0 3.0 0.00 0.00 0.00 85 1010.2
20260830064803 80 183 0.0 3.0 0.00 0.00 0.00 85 1010.2
20260830064702 80 183 0.0 3.0 0.00 0.00 0.00 85 1010.2
20260830064602 80 183 1.0 3.0 0.00 0.00 0.00 85 1010.2
20260830064503 80 186 0.0 2.0 0.00 0.00 0.00 85 1010.3
20260830064403 80 186 0.0 2.0 0.00 0.00 0.00 85 1010.2
20260830064304 80 188 0.0 2.0 0.00 0.00 0.00 85 1010.2
20260830064204 80 190 0.0 2.0 0.00 0.00 0.00 85 1010.1
20260830064103 80 189 0.0 2.0 0.00 0.00 0.00 85 1010.2
20260830064002 80 190 0.0 2.0 0.00 0.00 0.00 85 1010.1
20260830063902 80 183 0.0 2.0 0.00 0.00 0.00 85 1010.1
20260830063803 80 182 0.0 2.0 0.00 0.00 0.00 85 1010.0
20260830063704 80 173 0.0 1.0 0.00 0.00 0.00 85 1010.1
20260830063603 80 173 0.0 1.0 0.00 0.00 0.00 85 1010.2
20260830063503 80 173 0.0 1.0 0.00 0.00 0.00 85 1010.1
20260830063403 80 172 0.0 1.0 0.00 0.00 0.00 85 1010.3
20260830063304 80 172 0.0 1.0 0.00 0.00 0.00 85 1010.3
20260830063204 80 172 0.0 1.0 0.00 0.00 0.00 85 1010.2
20260830063105 80 173 0.0 1.0 0.00 0.00 0.00 85 1010.3
20260830063003 80 175 0.0 1.0 0.00 0.00 0.00 85 1010.3
20260830062902 80 175 0.0 0.0 0.00 0.00 0.00 85 1010.3
20260830062803 81 175 0.0 0.0 0.00 0.00 0.00 85 1010.3
20260830062703 81 175 0.0 0.0 0.00 0.00 0.00 85 1010.3
20260830062604 81 175 0.0 0.0 0.00 0.00 0.00 85 1010.3
20260830062503 81 175 0.0 1.0 0.00 0.00 0.00 85 1010.2
20260830062401 81 175 0.0 1.0 0.00 0.00 0.00 85 1010.2
20260830062305 81 175 0.0 1.0 0.00 0.00 0.00 85 1010.3
20260830062202 81 175 0.0 1.0 0.00 0.00 0.00 85 1010.3
20260830062102 81 175 0.0 1.0 0.00 0.00 0.00 85 1010.3
20260830062004 81 175 0.0 1.0 0.00 0.00 0.00 85 1010.3
20260830061903 81 175 0.0 2.0 0.00 0.00 0.00 85 1010.3
20260830061803 81 175 0.0 2.0 0.00 0.00 0.00 85 1010.4
20260830061703 81 175 0.0 2.0 0.00 0.00 0.00 85 1010.3
20260830061603 81 175 0.0 2.0 0.00 0.00 0.00 85 1010.2
20260830061504 81 173 0.0 2.0 0.00 0.00 0.00 85 1010.3
20260830061403 81 173 0.0 2.0 0.00 0.00 0.00 84 1010.3
20260830061304 81 175 0.0 2.0 0.00 0.00 0.00 84 1010.3
20260830061203 81 175 0.0 4.0 0.00 0.00 0.00 84 1010.2
20260830061104 81 175 0.0 4.0 0.00 0.00 0.00 84 1010.2
20260830061004 81 175 0.0 4.0 0.00 0.00 0.00 84 1010.2
20260830060903 81 175 0.0 4.0 0.00 0.00 0.00 84 1010.2
20260830060804 81 175 0.0 4.0 0.00 0.00 0.00 84 1010.2
20260830060702 81 175 0.0 4.0 0.00 0.00 0.00 84 1010.2
20260830060604 81 175 0.0 4.0 0.00 0.00 0.00 84 1010.2
20260830060503 81 175 0.0 4.0 0.00 0.00 0.00 84 1010.3
20260830060402 81 175 1.0 4.0 0.00 0.00 0.00 84 1010.2
20260830060303 81 175 1.0 4.0 0.00 0.00 0.00 84 1010.2
20260830060203 81 173 0.0 3.0 0.00 0.00 0.00 84 1010.2
20260830060104 81 173 0.0 3.0 0.00 0.00 0.00 84 1010.2
20260830060004 81 173 0.0 3.0 0.00 0.00 0.00 84 1010.2
20260830055904 81 173 0.0 3.0 0.00 0.00 0.00 84 1010.2
20260830055801 81 172 0.0 3.0 0.00 0.00 0.00 84 1010.2
20260830055702 81 172 1.0 3.0 0.00 0.00 0.00 84 1010.2
20260830055605 81 172 1.0 3.0 0.00 0.00 0.00 84 1010.1
20260830055505 81 172 1.0 4.0 0.00 0.00 0.00 84 1010.1
20260830055404 81 164 2.0 4.0 0.00 0.00 0.00 84 1010.1
20260830055306 81 189 2.0 4.0 0.00 0.00 0.00 84 1010.2
20260830055202 81 171 2.0 4.0 0.00 0.00 0.00 84 1010.1
20260830055103 81 171 1.0 4.0 0.00 0.00 0.00 84 1010.1
20260830055005 81 180 1.0 4.0 0.00 0.00 0.00 84 1010.0
20260830054903 81 182 1.0 4.0 0.00 0.00 0.00 84 1010.0
20260830054805 81 186 2.0 4.0 0.00 0.00 0.00 84 1010.0
20260830054702 81 188 2.0 4.0 0.00 0.00 0.00 84 1010.0
20260830054602 81 180 2.0 4.0 0.00 0.00 0.00 84 1010.0
20260830054504 81 179 2.0 4.0 0.00 0.00 0.00 84 1010.0
20260830054404 81 175 1.0 3.0 0.00 0.00 0.00 84 1010.1
20260830054303 81 175 1.0 3.0 0.00 0.00 0.00 84 1010.1
20260830054204 81 175 1.0 3.0 0.00 0.00 0.00 84 1010.2
20260830054104 81 175 1.0 3.0 0.00 0.00 0.00 84 1010.2
20260830054002 81 192 1.0 3.0 0.00 0.00 0.00 84 1010.1
20260830053904 81 175 1.0 3.0 0.00 0.00 0.00 84 1010.1
20260830053802 81 197 1.0 3.0 0.00 0.00 0.00 84 1010.1
20260830053702 81 193 2.0 4.0 0.00 0.00 0.00 84 1010.1
20260830053602 81 202 2.0 4.0 0.00 0.00 0.00 84 1010.1
20260830053502 81 176 1.0 4.0 0.00 0.00 0.00 83 1010.1
20260830053403 81 180 1.0 4.0 0.00 0.00 0.00 83 1010.1
20260830053303 81 183 1.0 4.0 0.00 0.00 0.00 83 1010.1
20260830053202 81 188 0.0 4.0 0.00 0.00 0.00 83 1010.1
20260830053104 81 192 1.0 4.0 0.00 0.00 0.00 83 1010.1
20260830053004 82 192 2.0 4.0 0.00 0.00 0.00 83 1010.1
20260830052903 82 185 2.0 4.0 0.00 0.00 0.00 83 1010.2
20260830052803 82 196 2.0 4.0 0.00 0.00 0.00 83 1010.1
20260830052703 82 171 2.0 4.0 0.00 0.00 0.00 83 1010.2
20260830052603 82 186 2.0 4.0 0.00 0.00 0.00 83 1010.2
20260830052504 82 193 2.0 4.0 0.00 0.00 0.00 83 1010.2
20260830052404 82 190 2.0 4.0 0.00 0.00 0.00 83 1010.2
20260830052306 82 173 2.0 4.0 0.00 0.00 0.00 83 1010.2
20260830052202 82 179 2.0 4.0 0.00 0.00 0.00 83 1010.2
20260830052101 82 183 2.0 4.0 0.00 0.00 0.00 83 1010.3
20260830052004 82 200 2.0 4.0 0.00 0.00 0.00 83 1010.2
20260830051903 82 175 1.0 4.0 0.00 0.00 0.00 83 1010.2
20260830051803 82 179 1.0 3.0 0.00 0.00 0.00 83 1010.2
20260830051702 82 179 2.0 3.0 0.00 0.00 0.00 83 1010.2
20260830051602 82 189 1.0 3.0 0.00 0.00 0.00 82 1010.2
20260830051504 82 237 1.0 3.0 0.00 0.00 0.00 82 1010.2
20260830051403 82 173 1.0 3.0 0.00 0.00 0.00 82 1010.3
20260830051302 82 169 2.0 3.0 0.00 0.00 0.00 82 1010.3
20260830051204 82 164 1.0 3.0 0.00 0.00 0.00 82 1010.3
20260830051103 82 169 1.0 3.0 0.00 0.00 0.00 82 1010.2
20260830051004 82 173 1.0 3.0 0.00 0.00 0.00 82 1010.2
20260830050904 82 192 2.0 3.0 0.00 0.00 0.00 82 1010.3
20260830050800 82 186 2.0 3.0 0.00 0.00 0.00 82 1010.2
20260830050658 82 200 2.0 3.0 0.00 0.00 0.00 82 1010.3
20260830050557 82 180 2.0 3.0 0.00 0.00 0.00 82 1010.3
20260830050448 82 173 2.0 3.0 0.00 0.00 0.00 81 1010.3
20260830050348 82 185 2.0 3.0 0.00 0.00 0.00 81 1010.4
20260830050242 82 185 1.0 3.0 0.00 0.00 0.00 81 1010.4
20260830050141 82 178 1.0 3.0 0.00 0.00 0.00 81 1010.3
20260830050033 82 172 1.0 3.0 0.00 0.00 0.00 81 1010.3
20260830045927 82 173 1.0 3.0 0.00 0.00 0.00 81 1010.3
20260830045826 82 162 1.0 3.0 0.00 0.00 0.00 81 1010.3
20260830045725 82 161 1.0 3.0 0.00 0.00 0.00 81 1010.3
20260830045620 82 157 2.0 3.0 0.00 0.00 0.00 81 1010.3
20260830045519 82 175 2.0 3.0 0.00 0.00 0.00 81 1010.3
20260830045413 83 176 2.0 3.0 0.00 0.00 0.00 81 1010.3
20260830045313 83 168 1.0 3.0 0.00 0.00 0.00 81 1010.4
20260830045209 83 182 1.0 3.0 0.00 0.00 0.00 81 1010.4
20260830045107 83 183 0.0 3.0 0.00 0.00 0.00 81 1010.4
20260830045006 83 186 0.0 3.0 0.00 0.00 0.00 81 1010.4
20260830044905 83 161 1.0 3.0 0.00 0.00 0.00 81 1010.5
20260830044806 83 162 1.0 3.0 0.00 0.00 0.00 80 1010.4
20260830044705 83 161 1.0 4.0 0.00 0.00 0.00 80 1010.4
20260830044606 83 161 1.0 5.0 0.00 0.00 0.00 80 1010.4
20260830044507 83 157 1.0 5.0 0.00 0.00 0.00 80 1010.5
20260830044405 83 159 1.0 5.0 0.00 0.00 0.00 80 1010.4
20260830044305 83 159 1.0 5.0 0.00 0.00 0.00 80 1010.5
20260830044207 83 151 2.0 5.0 0.00 0.00 0.00 80 1010.5
20260830044106 83 149 2.0 5.0 0.00 0.00 0.00 80 1010.5
20260830044006 83 168 2.0 5.0 0.00 0.00 0.00 80 1010.4
20260830043905 83 152 3.0 5.0 0.00 0.00 0.00 80 1010.4
20260830043806 83 149 3.0 5.0 0.00 0.00 0.00 80 1010.4
20260830043705 83 168 2.0 5.0 0.00 0.00 0.00 80 1010.5
20260830043606 83 169 2.0 6.0 0.00 0.00 0.00 80 1010.4
20260830043507 83 171 2.0 6.0 0.00 0.00 0.00 80 1010.5
20260830043406 83 178 2.0 6.0 0.00 0.00 0.00 80 1010.5
20260830043305 83 164 2.0 6.0 0.00 0.00 0.00 80 1010.5
20260830043205 83 151 2.0 6.0 0.00 0.00 0.00 79 1010.4
20260830043107 83 168 2.0 6.0 0.00 0.00 0.00 79 1010.5
20260830043006 83 182 2.0 6.0 0.00 0.00 0.00 79 1010.3
20260830042905 83 164 2.0 6.0 0.00 0.00 0.00 79 1010.4
20260830042807 83 164 3.0 6.0 0.00 0.00 0.00 79 1010.3
20260830042705 83 157 3.0 6.0 0.00 0.00 0.00 79 1010.4
20260830042605 83 147 3.0 5.0 0.00 0.00 0.00 79 1010.3
20260830042508 83 162 3.0 5.0 0.00 0.00 0.00 79 1010.4
20260830042405 83 161 3.0 5.0 0.00 0.00 0.00 79 1010.3
20260830042306 83 152 2.0 5.0 0.00 0.00 0.00 79 1010.4
20260830042205 83 137 2.0 5.0 0.00 0.00 0.00 79 1010.3
20260830042107 83 135 2.0 5.0 0.00 0.00 0.00 79 1010.4
20260830042007 83 127 2.0 5.0 0.00 0.00 0.00 78 1010.4
20260830041906 83 157 2.0 5.0 0.00 0.00 0.00 78 1010.4
20260830041807 83 161 1.0 5.0 0.00 0.00 0.00 78 1010.4
20260830041705 83 161 1.0 5.0 0.00 0.00 0.00 78 1010.4
20260830041605 83 178 1.0 5.0 0.00 0.00 0.00 78 1010.3
20260830041505 83 183 3.0 5.0 0.00 0.00 0.00 78 1010.4
20260830041404 83 182 2.0 5.0 0.00 0.00 0.00 78 1010.4
20260830041306 83 155 1.0 5.0 0.00 0.00 0.00 78 1010.4
20260830041204 83 161 1.0 5.0 0.00 0.00 0.00 78 1010.3
20260830041105 84 159 2.0 5.0 0.00 0.00 0.00 78 1010.4
20260830041005 84 157 2.0 5.0 0.00 0.00 0.00 78 1010.4
20260830040905 84 166 3.0 6.0 0.00 0.00 0.00 78 1010.3
20260830040804 84 165 2.0 6.0 0.00 0.00 0.00 78 1010.3
20260830040704 84 164 1.0 6.0 0.00 0.00 0.00 78 1010.3
20260830040604 84 166 1.0 6.0 0.00 0.00 0.00 78 1010.3
20260830040505 84 173 2.0 6.0 0.00 0.00 0.00 78 1010.3
20260830040405 84 182 3.0 6.0 0.00 0.00 0.00 78 1010.3
20260830040304 84 155 3.0 6.0 0.00 0.00 0.00 78 1010.3
20260830040205 84 159 1.0 6.0 0.00 0.00 0.00 78 1010.3
20260830040104 84 165 2.0 6.0 0.00 0.00 0.00 78 1010.3
20260830040005 84 183 2.0 6.0 0.00 0.00 0.00 78 1010.3
20260830035904 84 148 2.0 5.0 0.00 0.00 0.00 77 1010.2
20260830035805 84 147 1.0 5.0 0.00 0.00 0.00 77 1010.3
20260830035704 84 155 1.0 7.0 0.00 0.00 0.00 77 1010.2
20260830035605 84 165 1.0 7.0 0.00 0.00 0.00 77 1010.3
20260830035505 84 164 1.0 7.0 0.00 0.00 0.00 77 1010.2
20260830035404 84 165 1.0 7.0 0.00 0.00 0.00 77 1010.2
20260830035306 84 164 1.0 7.0 0.00 0.00 0.00 77 1010.3
20260830035204 84 165 2.0 7.0 0.00 0.00 0.00 77 1010.2
20260830035105 84 165 3.0 7.0 0.00 0.00 0.00 77 1010.2
20260830035005 84 158 2.0 7.0 0.00 0.00 0.00 77 1010.3
20260830034904 84 172 3.0 7.0 0.00 0.00 0.00 77 1010.3
20260830034804 84 168 3.0 7.0 0.00 0.00 0.00 76 1010.2
20260830034704 84 140 2.0 4.0 0.00 0.00 0.00 76 1010.2
20260830034604 84 180 1.0 4.0 0.00 0.00 0.00 76 1010.3
20260830034506 84 196 1.0 5.0 0.00 0.00 0.00 76 1010.2
20260830034405 84 140 0.0 5.0 0.00 0.00 0.00 76 1010.2
20260830034307 84 140 1.0 5.0 0.00 0.00 0.00 76 1010.2
20260830034204 85 140 2.0 5.0 0.00 0.00 0.00 76 1010.2
20260830034104 85 140 2.0 5.0 0.00 0.00 0.00 76 1010.2
20260830034004 85 151 2.0 5.0 0.00 0.00 0.00 76 1010.2
20260830033905 85 138 2.0 5.0 0.00 0.00 0.00 76 1010.1
20260830033804 85 140 2.0 5.0 0.00 0.00 0.00 76 1010.2
20260830033705 85 164 3.0 5.0 0.00 0.00 0.00 76 1010.2
20260830033604 85 159 3.0 5.0 0.00 0.00 0.00 76 1010.1
20260830033504 85 141 2.0 5.0 0.00 0.00 0.00 76 1010.1
20260830033404 85 162 2.0 5.0 0.00 0.00 0.00 76 1010.2
20260830033303 85 155 2.0 7.0 0.00 0.00 0.00 75 1010.2
20260830033206 85 162 2.0 7.0 0.00 0.00 0.00 75 1010.2
20260830033104 85 148 2.0 7.0 0.00 0.00 0.00 76 1010.2
20260830033004 85 164 2.0 7.0 0.00 0.00 0.00 75 1010.2
20260830032904 85 166 2.0 7.0 0.00 0.00 0.00 75 1010.2
20260830032804 85 161 2.0 7.0 0.00 0.00 0.00 75 1010.2
20260830032703 85 158 2.0 7.0 0.00 0.00 0.00 75 1010.1
20260830032605 85 149 2.0 7.0 0.00 0.00 0.00 75 1010.2
20260830032504 85 144 4.0 7.0 0.00 0.00 0.00 75 1010.2
20260830032405 85 169 4.0 7.0 0.00 0.00 0.00 75 1010.1
20260830032306 85 173 3.0 6.0 0.00 0.00 0.00 75 1010.2
20260830032204 85 121 2.0 6.0 0.00 0.00 0.00 75 1010.2
20260830032104 85 165 2.0 6.0 0.00 0.00 0.00 75 1010.1
20260830032005 85 142 3.0 6.0 0.00 0.00 0.00 75 1010.2
20260830031903 85 142 3.0 6.0 0.00 0.00 0.00 74 1010.2
20260830031803 85 166 2.0 6.0 0.00 0.00 0.00 74 1010.1
20260830031703 85 162 2.0 6.0 0.00 0.00 0.00 74 1010.1
20260830031604 85 179 3.0 6.0 0.00 0.00 0.00 74 1010.1
20260830031504 85 159 3.0 6.0 0.00 0.00 0.00 74 1010.1
20260830031404 85 147 4.0 6.0 0.00 0.00 0.00 74 1010.1
20260830031303 85 164 3.0 6.0 0.00 0.00 0.00 74 1010.1
20260830031203 85 154 4.0 6.0 0.00 0.00 0.00 74 1010.0
20260830031104 85 135 3.0 9.0 0.00 0.00 0.00 74 1009.9
20260830031004 85 162 2.0 9.0 0.00 0.00 0.00 74 1010.0
20260830030903 85 147 2.0 9.0 0.00 0.00 0.00 74 1010.0
20260830030804 85 158 2.0 9.0 0.00 0.00 0.00 74 1010.0
20260830030704 85 149 1.0 9.0 0.00 0.00 0.00 74 1010.0
20260830030603 85 165 2.0 9.0 0.00 0.00 0.00 74 1009.9
20260830030503 86 168 3.0 9.0 0.00 0.00 0.00 74 1009.9
20260830030403 86 161 4.0 9.0 0.00 0.00 0.00 74 1009.9
20260830030304 86 135 4.0 9.0 0.00 0.00 0.00 74 1009.9
20260830030203 86 148 4.0 9.0 0.00 0.00 0.00 74 1009.9
20260830030105 86 180 4.0 9.0 0.00 0.00 0.00 74 1009.9
20260830030005 86 152 3.0 5.0 0.00 0.00 0.00 74 1010.0
20260830025904 86 154 3.0 10.0 0.00 0.00 0.00 74 1010.0
20260830025804 86 155 3.0 10.0 0.00 0.00 0.00 74 1010.0
20260830025705 86 147 2.0 10.0 0.00 0.00 0.00 74 1010.0
20260830025604 86 161 3.0 10.0 0.00 0.00 0.00 74 1010.0
20260830025503 86 148 3.0 10.0 0.00 0.00 0.00 74 1009.9
20260830025403 86 149 2.0 10.0 0.00 0.00 0.00 74 1009.9
20260830025306 86 161 3.0 10.0 0.00 0.00 0.00 74 1010.0
20260830025203 86 175 3.0 10.0 0.00 0.00 0.00 74 1009.9
20260830025103 86 175 3.0 10.0 0.00 0.00 0.00 74 1010.0
20260830025005 86 123 3.0 10.0 0.00 0.00 0.00 74 1009.9
20260830024902 86 165 2.0 5.0 0.00 0.00 0.00 74 1009.9
20260830024802 86 151 2.0 6.0 0.00 0.00 0.00 74 1009.9
20260830024704 86 154 2.0 6.0 0.00 0.00 0.00 74 1009.9
20260830024603 86 141 2.0 6.0 0.00 0.00 0.00 74 1009.9
20260830024506 86 173 2.0 6.0 0.00 0.00 0.00 74 1009.9
20260830024402 86 147 2.0 6.0 0.00 0.00 0.00 73 1009.9
20260830024303 86 154 2.0 6.0 0.00 0.00 0.00 73 1009.9
20260830024203 86 175 2.0 6.0 0.00 0.00 0.00 73 1009.8
20260830024103 86 155 2.0 6.0 0.00 0.00 0.00 73 1009.8
20260830024005 86 152 3.0 6.0 0.00 0.00 0.00 73 1009.8
20260830023903 86 161 4.0 9.0 0.00 0.00 0.00 73 1009.7
20260830023800 86 141 3.0 9.0 0.00 0.00 0.00 73 1009.8
20260830023657 86 127 2.0 9.0 0.00 0.00 0.00 73 1009.7
20260830023557 86 164 2.0 9.0 0.00 0.00 0.00 73 1009.7
20260830023454 86 172 3.0 9.0 0.00 0.00 0.00 73 1009.6
20260830023354 86 144 3.0 9.0 0.00 0.00 0.00 73 1009.7
20260830023246 87 147 3.0 9.0 0.00 0.00 0.00 73 1009.6
20260830023144 87 148 4.0 9.0 0.00 0.00 0.00 73 1009.6
20260830023033 87 188 4.0 9.0 0.00 0.00 0.00 73 1009.6
20260830022933 87 164 3.0 9.0 0.00 0.00 0.00 73 1009.6
20260830022832 87 165 4.0 9.0 0.00 0.00 0.00 73 1009.6
20260830022732 87 158 3.0 9.0 0.00 0.00 0.00 73 1009.5
20260830022628 87 164 2.0 9.0 0.00 0.00 0.00 73 1009.5
20260830022527 87 176 3.0 9.0 0.00 0.00 0.00 73 1009.5
20260830022426 87 155 4.0 9.0 0.00 0.00 0.00 73 1009.4
20260830022324 87 169 4.0 7.0 0.00 0.00 0.00 73 1009.4
20260830022222 87 165 4.0 7.0 0.00 0.00 0.00 73 1009.4
20260830022121 87 196 3.0 9.0 0.00 0.00 0.00 73 1009.4
20260830022018 87 148 3.0 9.0 0.00 0.00 0.00 73 1009.4
20260830021918 87 149 3.0 9.0 0.00 0.00 0.00 73 1009.4
20260830021816 87 147 2.0 9.0 0.00 0.00 0.00 73 1009.3
20260830021715 87 161 2.0 9.0 0.00 0.00 0.00 73 1009.3
20260830021608 87 185 3.0 9.0 0.00 0.00 0.00 73 1009.3
20260830021505 87 158 3.0 9.0 0.00 0.00 0.00 72 1009.2